Wetterdaten: Dienstag, 02.02.2016
Datum Zeit Temp. Aussen Temp. o. S. +5cm Feuchte Auss BlattFeu 1 Luftdruck Regen Sonnenschein Regendauer Solar Windben Empfang
02.02.2016 00:00 10,6 C 10,0 C 8,9 C 94 % 15 lf 1016,1 hPa 0,0 l/m 0 min 2 min 0 W/m 29,3 km/h (5 Bft) 91,49 %
02.02.2016 00:02 10,6 C 10,0 C 8,9 C 94 % 15 lf 1016,1 hPa 0,0 l/m 0 min 2 min 0 W/m 37,7 km/h (5 Bft) 90,32 %
02.02.2016 00:06 10,6 C 10,6 C 8,9 C 94 % 15 lf 1016,0 hPa 0,0 l/m 0 min 2 min 0 W/m 39,7 km/h (6 Bft) 93,75 %
02.02.2016 00:08 10,6 C 10,6 C 8,9 C 94 % 15 lf 1016,0 hPa 0,0 l/m 0 min 2 min 0 W/m 31,4 km/h (5 Bft) 95,74 %
02.02.2016 00:10 10,6 C 10,6 C 8,9 C 94 % 15 lf 1016,1 hPa 0,0 l/m 0 min 2 min 0 W/m 37,7 km/h (5 Bft) 95,74 %
02.02.2016 00:12 10,6 C 10,6 C 8,9 C 94 % 15 lf 1016,1 hPa 0,0 l/m 0 min 2 min 0 W/m 31,4 km/h (5 Bft) 95,74 %
02.02.2016 00:14 10,6 C 10,6 C 8,9 C 94 % 15 lf 1016,0 hPa 0,0 l/m 0 min 2 min 0 W/m 33,5 km/h (5 Bft) 95,74 %
02.02.2016 00:16 10,6 C 10,6 C 8,9 C 94 % 14 lf 1016,1 hPa 0,0 l/m 0 min 2 min 0 W/m 41,8 km/h (6 Bft) 95,65 %
02.02.2016 00:18 10,6 C 10,6 C 8,9 C 94 % 15 lf 1016,0 hPa 0,0 l/m 0 min 2 min 0 W/m 33,5 km/h (5 Bft) 95,74 %
02.02.2016 00:20 10,6 C 10,6 C 8,9 C 94 % 15 lf 1016,1 hPa 0,0 l/m 0 min 2 min 0 W/m 39,7 km/h (6 Bft) 93,62 %
02.02.2016 00:22 10,6 C 10,6 C 8,9 C 94 % 15 lf 1016,0 hPa 0,0 l/m 0 min 2 min 0 W/m 41,8 km/h (6 Bft) 95,74 %
02.02.2016 00:24 10,6 C 10,0 C 8,9 C 94 % 15 lf 1016,1 hPa 0,0 l/m 0 min 2 min 0 W/m 39,7 km/h (6 Bft) 97,87 %
02.02.2016 00:26 10,6 C 10,0 C 8,9 C 94 % 15 lf 1016,1 hPa 0,0 l/m 0 min 2 min 0 W/m 41,8 km/h (6 Bft) 91,49 %
02.02.2016 00:28 10,6 C 10,0 C 8,9 C 94 % 15 lf 1016,1 hPa 0,0 l/m 0 min 0 min 0 W/m 25,1 km/h (4 Bft) 95,65 %
02.02.2016 00:30 10,6 C 10,0 C 8,9 C 94 % 15 lf 1016,1 hPa 0,0 l/m 0 min 0 min 0 W/m 33,5 km/h (5 Bft) 97,87 %
02.02.2016 00:32 10,6 C 10,0 C 8,9 C 94 % 15 lf 1015,9 hPa 0,0 l/m 0 min 2 min 0 W/m 39,7 km/h (6 Bft) 97,87 %
02.02.2016 00:34 10,6 C 10,0 C 8,9 C 94 % 15 lf 1016,1 hPa 0,0 l/m 0 min 2 min 0 W/m 35,6 km/h (5 Bft) 89,36 %
02.02.2016 00:36 10,6 C 10,0 C 8,9 C 94 % 15 lf 1016,2 hPa 0,0 l/m 0 min 2 min 0 W/m 33,5 km/h (5 Bft) 91,49 %
02.02.2016 00:38 10,6 C 10,6 C 8,9 C 94 % 15 lf 1016,1 hPa 0,0 l/m 0 min 2 min 0 W/m 35,6 km/h (5 Bft) 93,62 %
02.02.2016 00:40 10,6 C 10,6 C 8,9 C 94 % 15 lf 1016,1 hPa 0,0 l/m 0 min 2 min 0 W/m 35,6 km/h (5 Bft) 95,65 %
02.02.2016 00:42 10,6 C 10,6 C 9,4 C 94 % 15 lf 1016,1 hPa 0,0 l/m 0 min 2 min 0 W/m 37,7 km/h (5 Bft) 97,87 %
02.02.2016 00:44 10,6 C 10,6 C 9,4 C 94 % 15 lf 1016,0 hPa 0,0 l/m 0 min 2 min 0 W/m 29,3 km/h (5 Bft) 93,62 %
02.02.2016 00:46 10,6 C 10,6 C 9,4 C 94 % 15 lf 1016,1 hPa 0,0 l/m 0 min 2 min 0 W/m 46,0 km/h (6 Bft) 95,74 %
02.02.2016 00:48 10,6 C 10,6 C 9,4 C 94 % 15 lf 1016,0 hPa 0,0 l/m 0 min 2 min 0 W/m 37,7 km/h (5 Bft) 95,74 %
02.02.2016 00:50 10,7 C 10,6 C 9,4 C 94 % 15 lf 1016,0 hPa 0,0 l/m 0 min 2 min 0 W/m 43,9 km/h (6 Bft) 91,30 %
02.02.2016 00:52 10,7 C 10,6 C 9,4 C 94 % 15 lf 1016,0 hPa 0,0 l/m 0 min 2 min 0 W/m 39,7 km/h (6 Bft) 91,49 %
02.02.2016 00:54 10,7 C 11,1 C 9,4 C 94 % 15 lf 1016,0 hPa 0,0 l/m 0 min 2 min 0 W/m 50,2 km/h (7 Bft) 91,49 %
02.02.2016 00:56 10,7 C 11,1 C 9,4 C 94 % 14 lf 1015,9 hPa 0,0 l/m 0 min 0 min 0 W/m 39,7 km/h (6 Bft) 93,62 %
02.02.2016 00:58 10,7 C 11,1 C 9,4 C 94 % 13 lf 1016,0 hPa 0,0 l/m 0 min 0 min 0 W/m 39,7 km/h (6 Bft) 95,74 %
02.02.2016 01:00 10,7 C 11,1 C 9,4 C 94 % 15 lf 1015,9 hPa 0,0 l/m 0 min 2 min 0 W/m 41,8 km/h (6 Bft) 93,62 %
02.02.2016 01:02 10,8 C 11,1 C 9,4 C 93 % 15 lf 1015,8 hPa 0,0 l/m 0 min 2 min 0 W/m 37,7 km/h (5 Bft) 93,88 %
02.02.2016 01:04 10,8 C 10,6 C 9,4 C 93 % 15 lf 1015,9 hPa 0,0 l/m 0 min 2 min 0 W/m 43,9 km/h (6 Bft) 93,62 %
02.02.2016 01:06 10,8 C 10,6 C 9,4 C 93 % 15 lf 1015,9 hPa 0,0 l/m 0 min 2 min 0 W/m 41,8 km/h (6 Bft) 91,49 %
02.02.2016 01:08 10,8 C 11,1 C 9,4 C 93 % 15 lf 1015,8 hPa 0,0 l/m 0 min 2 min 0 W/m 43,9 km/h (6 Bft) 93,48 %
02.02.2016 01:10 10,8 C 11,1 C 9,4 C 93 % 15 lf 1015,8 hPa 0,0 l/m 0 min 2 min 0 W/m 43,9 km/h (6 Bft) 93,62 %
02.02.2016 01:12 10,8 C 11,1 C 9,4 C 93 % 15 lf 1015,8 hPa 0,0 l/m 0 min 2 min 0 W/m 35,6 km/h (5 Bft) 93,62 %
02.02.2016 01:14 10,8 C 10,6 C 9,4 C 93 % 15 lf 1015,8 hPa 0,0 l/m 0 min 2 min 0 W/m 35,6 km/h (5 Bft) 93,62 %
02.02.2016 01:16 10,8 C 10,6 C 8,9 C 93 % 15 lf 1015,8 hPa 0,0 l/m 0 min 2 min 0 W/m 39,7 km/h (6 Bft) 93,62 %
02.02.2016 01:18 10,8 C 10,0 C 8,9 C 93 % 15 lf 1015,8 hPa 0,0 l/m 0 min 2 min 0 W/m 37,7 km/h (5 Bft) 93,62 %
02.02.2016 01:20 10,8 C 10,0 C 8,9 C 93 % 15 lf 1015,8 hPa 0,0 l/m 0 min 2 min 0 W/m 52,3 km/h (7 Bft) 95,65 %
02.02.2016 01:22 10,8 C 10,0 C 8,9 C 93 % 15 lf 1015,8 hPa 0,0 l/m 0 min 2 min 0 W/m 37,7 km/h (5 Bft) 93,62 %
02.02.2016 01:24 10,8 C 10,0 C 8,9 C 93 % 15 lf 1015,8 hPa 0,0 l/m 0 min 2 min 0 W/m 35,6 km/h (5 Bft) 93,62 %
02.02.2016 01:26 10,7 C 10,0 C 8,9 C 93 % 15 lf 1015,8 hPa 0,0 l/m 0 min 2 min 0 W/m 52,3 km/h (7 Bft) 95,74 %
02.02.2016 01:28 10,7 C 10,0 C 8,9 C 93 % 15 lf 1015,7 hPa 0,0 l/m 0 min 2 min 0 W/m 48,1 km/h (6 Bft) 97,87 %
02.02.2016 01:30 10,7 C 10,0 C 8,9 C 93 % 15 lf 1015,7 hPa 0,0 l/m 0 min 2 min 0 W/m 54,4 km/h (7 Bft) 97,87 %
02.02.2016 01:32 10,7 C 10,0 C 8,9 C 93 % 15 lf 1015,7 hPa 0,0 l/m 0 min 2 min 0 W/m 41,8 km/h (6 Bft) 95,65 %
02.02.2016 01:34 10,7 C 10,0 C 8,9 C 94 % 15 lf 1015,7 hPa 0,0 l/m 0 min 2 min 0 W/m 48,1 km/h (6 Bft) 95,74 %
02.02.2016 01:36 10,7 C 10,6 C 8,9 C 94 % 15 lf 1015,7 hPa 0,0 l/m 0 min 2 min 0 W/m 50,2 km/h (7 Bft) 97,87 %
02.02.2016 01:38 10,7 C 10,0 C 8,9 C 94 % 15 lf 1015,7 hPa 0,0 l/m 0 min 2 min 0 W/m 46,0 km/h (6 Bft) 100,00 %
02.02.2016 01:40 10,6 C 10,0 C 8,9 C 94 % 15 lf 1015,6 hPa 0,0 l/m 0 min 0 min 0 W/m 43,9 km/h (6 Bft) 100,00 %
02.02.2016 01:42 10,6 C 10,6 C 8,9 C 94 % 15 lf 1015,7 hPa 0,0 l/m 0 min 2 min 0 W/m 50,2 km/h (7 Bft) 89,36 %
02.02.2016 01:44 10,6 C 10,6 C 8,9 C 94 % 15 lf 1015,7 hPa 0,0 l/m 0 min 2 min 0 W/m 43,9 km/h (6 Bft) 97,83 %
02.02.2016 01:46 10,6 C 10,6 C 8,9 C 94 % 15 lf 1015,7 hPa 0,0 l/m 0 min 0 min 0 W/m 50,2 km/h (7 Bft) 100,00 %
02.02.2016 01:48 10,6 C 10,6 C 8,9 C 94 % 15 lf 1015,7 hPa 0,0 l/m 0 min 0 min 0 W/m 54,4 km/h (7 Bft) 100,00 %
02.02.2016 01:50 10,6 C 10,6 C 8,9 C 94 % 15 lf 1015,7 hPa 0,0 l/m 0 min 2 min 0 W/m 46,0 km/h (6 Bft) 95,74 %
02.02.2016 01:52 10,6 C 10,6 C 8,9 C 94 % 15 lf 1015,5 hPa 0,0 l/m 0 min 2 min 0 W/m 43,9 km/h (6 Bft) 97,87 %
02.02.2016 01:54 10,6 C 10,6 C 8,9 C 93 % 15 lf 1015,7 hPa 0,0 l/m 0 min 0 min 0 W/m 46,0 km/h (6 Bft) 95,74 %
02.02.2016 01:56 10,6 C 10,6 C 8,9 C 93 % 15 lf 1015,6 hPa 0,0 l/m 0 min 0 min 0 W/m 29,3 km/h (5 Bft) 97,83 %
02.02.2016 01:58 10,6 C 10,6 C 8,9 C 93 % 15 lf 1015,4 hPa 0,0 l/m 0 min 0 min 0 W/m 31,4 km/h (5 Bft) 97,87 %
02.02.2016 02:00 10,6 C 10,6 C 8,9 C 93 % 15 lf 1015,5 hPa 0,0 l/m 0 min 0 min 0 W/m 43,9 km/h (6 Bft) 100,00 %
02.02.2016 02:02 10,6 C 10,6 C 8,9 C 93 % 15 lf 1015,6 hPa 0,0 l/m 0 min 0 min 0 W/m 50,2 km/h (7 Bft) 100,00 %
02.02.2016 02:04 10,6 C 11,1 C 8,9 C 93 % 15 lf 1015,6 hPa 0,0 l/m 0 min 0 min 0 W/m 39,7 km/h (6 Bft) 100,00 %
02.02.2016 02:06 10,7 C 11,1 C 8,9 C 93 % 14 lf 1015,4 hPa 0,0 l/m 0 min 0 min 0 W/m 54,4 km/h (7 Bft) 100,00 %
02.02.2016 02:08 10,7 C 11,1 C 8,9 C 93 % 12 lf 1015,4 hPa 0,0 l/m 0 min 2 min 0 W/m 43,9 km/h (6 Bft) 95,65 %
02.02.2016 02:10 10,7 C 11,1 C 9,4 C 93 % 9 lf 1015,4 hPa 0,0 l/m 0 min 2 min 0 W/m 35,6 km/h (5 Bft) 100,00 %
02.02.2016 02:12 10,7 C 11,1 C 9,4 C 93 % 5 lf 1015,6 hPa 0,0 l/m 0 min 0 min 0 W/m 41,8 km/h (6 Bft) 100,00 %
02.02.2016 02:14 10,7 C 11,1 C 9,4 C 93 % 4 lf 1015,5 hPa 0,0 l/m 0 min 2 min 0 W/m 48,1 km/h (6 Bft) 97,87 %
02.02.2016 02:16 10,8 C 10,6 C 9,4 C 93 % 15 lf 1015,5 hPa 0,0 l/m 0 min 2 min 0 W/m 48,1 km/h (6 Bft) 100,00 %
02.02.2016 02:18 10,8 C 10,6 C 8,9 C 93 % 15 lf 1015,5 hPa 0,0 l/m 0 min 2 min 0 W/m 43,9 km/h (6 Bft) 97,83 %
02.02.2016 02:20 10,8 C 10,6 C 8,9 C 93 % 15 lf 1015,4 hPa 0,0 l/m 0 min 2 min 0 W/m 48,1 km/h (6 Bft) 95,74 %
02.02.2016 02:22 10,8 C 10,6 C 8,9 C 93 % 15 lf 1015,4 hPa 0,0 l/m 0 min 2 min 0 W/m 48,1 km/h (6 Bft) 97,87 %
02.02.2016 02:24 10,8 C 10,6 C 8,9 C 93 % 15 lf 1015,4 hPa 0,0 l/m 0 min 2 min 0 W/m 46,0 km/h (6 Bft) 97,87 %
02.02.2016 02:26 10,8 C 10,6 C 8,9 C 93 % 15 lf 1015,4 hPa 0,0 l/m 0 min 2 min 0 W/m 39,7 km/h (6 Bft) 95,74 %
02.02.2016 02:28 10,8 C 10,6 C 8,9 C 93 % 15 lf 1015,3 hPa 0,0 l/m 0 min 2 min 0 W/m 39,7 km/h (6 Bft) 97,87 %
02.02.2016 02:30 10,8 C 10,6 C 8,9 C 93 % 15 lf 1015,5 hPa 0,0 l/m 0 min 2 min 0 W/m 50,2 km/h (7 Bft) 97,83 %
02.02.2016 02:32 10,8 C 10,6 C 8,9 C 93 % 15 lf 1015,4 hPa 0,0 l/m 0 min 2 min 0 W/m 41,8 km/h (6 Bft) 97,87 %
02.02.2016 02:34 10,8 C 10,6 C 8,9 C 93 % 15 lf 1015,4 hPa 0,0 l/m 0 min 2 min 0 W/m 33,5 km/h (5 Bft) 93,62 %
02.02.2016 02:36 10,8 C 10,6 C 8,9 C 93 % 15 lf 1015,4 hPa 0,0 l/m 0 min 2 min 0 W/m 33,5 km/h (5 Bft) 97,87 %
02.02.2016 02:38 10,8 C 10,6 C 8,9 C 93 % 15 lf 1015,4 hPa 0,0 l/m 0 min 2 min 0 W/m 31,4 km/h (5 Bft) 97,87 %
02.02.2016 02:40 10,7 C 10,6 C 8,9 C 93 % 15 lf 1015,3 hPa 0,0 l/m 0 min 2 min 0 W/m 41,8 km/h (6 Bft) 97,87 %
02.02.2016 02:42 10,7 C 10,6 C 8,9 C 93 % 15 lf 1015,4 hPa 0,0 l/m 0 min 2 min 0 W/m 50,2 km/h (7 Bft) 97,83 %
02.02.2016 02:44 10,7 C 10,6 C 8,9 C 93 % 15 lf 1015,7 hPa 0,2 l/m 0 min 2 min 0 W/m 50,2 km/h (7 Bft) 97,87 %
02.02.2016 02:46 10,7 C 10,6 C 8,9 C 93 % 15 lf 1015,7 hPa 0,0 l/m 0 min 2 min 0 W/m 54,4 km/h (7 Bft) 97,87 %
02.02.2016 02:48 10,7 C 10,6 C 8,9 C 93 % 15 lf 1015,7 hPa 0,0 l/m 0 min 2 min 0 W/m 43,9 km/h (6 Bft) 97,87 %
02.02.2016 02:50 10,7 C 10,6 C 8,9 C 93 % 15 lf 1015,6 hPa 0,0 l/m 0 min 2 min 0 W/m 41,8 km/h (6 Bft) 93,62 %
02.02.2016 02:52 10,7 C 10,6 C 8,9 C 93 % 15 lf 1015,4 hPa 0,0 l/m 0 min 0 min 0 W/m 54,4 km/h (7 Bft) 95,74 %
02.02.2016 02:54 10,7 C 10,6 C 8,9 C 93 % 15 lf 1015,4 hPa 0,0 l/m 0 min 0 min 0 W/m 54,4 km/h (7 Bft) 95,65 %
02.02.2016 02:56 10,7 C 10,6 C 8,9 C 93 % 15 lf 1015,4 hPa 0,0 l/m 0 min 0 min 0 W/m 37,7 km/h (5 Bft) 93,62 %
02.02.2016 02:58 10,7 C 10,6 C 8,9 C 93 % 15 lf 1015,4 hPa 0,0 l/m 0 min 0 min 0 W/m 46,0 km/h (6 Bft) 95,74 %
02.02.2016 03:00 10,7 C 11,1 C 8,9 C 93 % 15 lf 1015,4 hPa 0,0 l/m 0 min 0 min 0 W/m 48,1 km/h (6 Bft) 95,74 %
02.02.2016 03:02 10,7 C 11,1 C 8,9 C 93 % 15 lf 1015,3 hPa 0,0 l/m 0 min 0 min 0 W/m 43,9 km/h (6 Bft) 95,74 %
02.02.2016 03:04 10,7 C 11,1 C 8,9 C 93 % 15 lf 1015,2 hPa 0,0 l/m 0 min 0 min 0 W/m 46,0 km/h (6 Bft) 95,74 %
02.02.2016 03:06 10,7 C 11,1 C 8,9 C 93 % 15 lf 1015,3 hPa 0,0 l/m 0 min 2 min 0 W/m 43,9 km/h (6 Bft) 93,48 %
02.02.2016 03:08 10,7 C 11,1 C 8,9 C 93 % 15 lf 1015,3 hPa 0,0 l/m 0 min 0 min 0 W/m 71,1 km/h (8 Bft) 97,87 %
02.02.2016 03:10 10,7 C 11,1 C 8,9 C 93 % 15 lf 1015,4 hPa 0,0 l/m 0 min 0 min 0 W/m 43,9 km/h (6 Bft) 91,49 %
02.02.2016 03:12 10,8 C 10,6 C 8,9 C 93 % 15 lf 1015,4 hPa 0,0 l/m 0 min 2 min 0 W/m 39,7 km/h (6 Bft) 97,87 %
02.02.2016 03:14 10,8 C 10,0 C 8,9 C 92 % 15 lf 1015,3 hPa 0,0 l/m 0 min 2 min 0 W/m 39,7 km/h (6 Bft) 97,87 %
02.02.2016 03:16 10,8 C 10,0 C 8,9 C 92 % 15 lf 1015,3 hPa 0,0 l/m 0 min 2 min 0 W/m 43,9 km/h (6 Bft) 95,74 %
02.02.2016 03:18 10,8 C 10,0 C 8,9 C 93 % 15 lf 1015,3 hPa 0,0 l/m 0 min 2 min 0 W/m 48,1 km/h (6 Bft) 93,48 %
02.02.2016 03:20 10,8 C 10,0 C 8,9 C 93 % 15 lf 1015,2 hPa 0,0 l/m 0 min 2 min 0 W/m 41,8 km/h (6 Bft) 97,87 %
02.02.2016 03:22 10,8 C 10,0 C 8,9 C 93 % 15 lf 1015,2 hPa 0,0 l/m 0 min 2 min 0 W/m 39,7 km/h (6 Bft) 97,87 %
02.02.2016 03:24 10,8 C 10,0 C 8,9 C 93 % 15 lf 1015,3 hPa 0,0 l/m 0 min 2 min 0 W/m 35,6 km/h (5 Bft) 91,49 %
02.02.2016 03:26 10,8 C 10,6 C 8,9 C 93 % 15 lf 1015,3 hPa 0,0 l/m 0 min 2 min 0 W/m 46,0 km/h (6 Bft) 100,00 %
02.02.2016 03:28 10,8 C 10,6 C 8,9 C 93 % 15 lf 1015,3 hPa 0,0 l/m 0 min 2 min 0 W/m 39,7 km/h (6 Bft) 97,83 %
02.02.2016 03:30 10,8 C 10,0 C 8,9 C 93 % 15 lf 1015,4 hPa 0,0 l/m 0 min 2 min 0 W/m 54,4 km/h (7 Bft) 93,62 %
02.02.2016 03:32 10,8 C 10,0 C 8,9 C 93 % 15 lf 1015,3 hPa 0,0 l/m 0 min 2 min 0 W/m 39,7 km/h (6 Bft) 95,74 %
02.02.2016 03:34 10,8 C 10,0 C 8,9 C 93 % 15 lf 1015,3 hPa 0,0 l/m 0 min 2 min 0 W/m 37,7 km/h (5 Bft) 97,87 %
02.02.2016 03:36 10,8 C 10,0 C 8,9 C 93 % 15 lf 1015,3 hPa 0,0 l/m 0 min 2 min 0 W/m 29,3 km/h (5 Bft) 97,87 %
02.02.2016 03:38 10,8 C 10,6 C 8,9 C 93 % 15 lf 1015,3 hPa 0,0 l/m 0 min 2 min 0 W/m 43,9 km/h (6 Bft) 97,87 %
02.02.2016 03:40 10,7 C 10,6 C 8,9 C 93 % 15 lf 1015,2 hPa 0,0 l/m 0 min 2 min 0 W/m 46,0 km/h (6 Bft) 95,65 %
02.02.2016 03:42 10,7 C 10,6 C 8,9 C 93 % 15 lf 1015,2 hPa 0,0 l/m 0 min 2 min 0 W/m 37,7 km/h (5 Bft) 93,62 %
02.02.2016 03:44 10,7 C 10,6 C 8,9 C 93 % 15 lf 1015,2 hPa 0,0 l/m 0 min 2 min 0 W/m 35,6 km/h (5 Bft) 100,00 %
02.02.2016 03:46 10,7 C 10,6 C 8,9 C 93 % 15 lf 1015,2 hPa 0,0 l/m 0 min 2 min 0 W/m 37,7 km/h (5 Bft) 95,74 %
02.02.2016 03:48 10,7 C 10,6 C 8,9 C 93 % 15 lf 1015,2 hPa 0,0 l/m 0 min 2 min 0 W/m 31,4 km/h (5 Bft) 95,74 %
02.02.2016 03:50 10,7 C 10,6 C 8,9 C 93 % 15 lf 1015,1 hPa 0,0 l/m 0 min 0 min 0 W/m 46,0 km/h (6 Bft) 93,62 %
02.02.2016 03:52 10,7 C 10,6 C 8,9 C 93 % 15 lf 1015,2 hPa 0,0 l/m 0 min 0 min 0 W/m 41,8 km/h (6 Bft) 97,83 %
02.02.2016 03:54 10,7 C 10,6 C 8,9 C 93 % 15 lf 1015,0 hPa 0,0 l/m 0 min 2 min 0 W/m 46,0 km/h (6 Bft) 93,62 %
02.02.2016 03:56 10,7 C 10,6 C 8,9 C 93 % 15 lf 1015,1 hPa 0,0 l/m 0 min 2 min 0 W/m 48,1 km/h (6 Bft) 95,74 %
02.02.2016 03:58 10,7 C 10,6 C 8,9 C 93 % 15 lf 1015,1 hPa 0,0 l/m 0 min 2 min 0 W/m 33,5 km/h (5 Bft) 89,36 %
02.02.2016 04:00 10,7 C 10,6 C 8,9 C 93 % 15 lf 1015,1 hPa 0,0 l/m 0 min 2 min 0 W/m 48,1 km/h (6 Bft) 95,74 %
02.02.2016 04:02 10,7 C 10,6 C 8,9 C 93 % 15 lf 1014,9 hPa 0,0 l/m 0 min 2 min 0 W/m 31,4 km/h (5 Bft) 100,00 %
02.02.2016 04:04 10,7 C 10,6 C 8,9 C 93 % 15 lf 1015,0 hPa 0,0 l/m 0 min 2 min 0 W/m 31,4 km/h (5 Bft) 95,65 %
02.02.2016 04:06 10,7 C 11,1 C 8,9 C 92 % 15 lf 1015,0 hPa 0,0 l/m 0 min 2 min 0 W/m 41,8 km/h (6 Bft) 95,74 %
02.02.2016 04:08 10,7 C 11,1 C 8,9 C 93 % 15 lf 1015,0 hPa 0,0 l/m 0 min 2 min 0 W/m 37,7 km/h (5 Bft) 97,87 %
02.02.2016 04:10 10,7 C 11,1 C 8,9 C 92 % 15 lf 1015,0 hPa 0,0 l/m 0 min 0 min 0 W/m 41,8 km/h (6 Bft) 97,87 %
02.02.2016 04:12 10,7 C 11,1 C 9,4 C 92 % 15 lf 1015,1 hPa 0,0 l/m 0 min 0 min 0 W/m 46,0 km/h (6 Bft) 95,74 %
02.02.2016 04:14 10,7 C 11,1 C 9,4 C 92 % 14 lf 1015,0 hPa 0,0 l/m 0 min 0 min 0 W/m 37,7 km/h (5 Bft) 95,74 %
02.02.2016 04:16 10,7 C 11,1 C 9,4 C 91 % 13 lf 1015,0 hPa 0,0 l/m 0 min 2 min 0 W/m 46,0 km/h (6 Bft) 93,48 %
02.02.2016 04:18 10,7 C 11,1 C 9,4 C 91 % 12 lf 1015,0 hPa 0,0 l/m 0 min 2 min 0 W/m 41,8 km/h (6 Bft) 93,62 %
02.02.2016 04:20 10,8 C 11,1 C 8,9 C 91 % 13 lf 1015,0 hPa 0,0 l/m 0 min 2 min 0 W/m 41,8 km/h (6 Bft) 95,74 %
02.02.2016 04:22 10,8 C 10,6 C 8,9 C 91 % 15 lf 1015,1 hPa 0,0 l/m 0 min 2 min 0 W/m 48,1 km/h (6 Bft) 91,49 %
02.02.2016 04:24 10,8 C 10,6 C 8,9 C 91 % 15 lf 1015,2 hPa 0,0 l/m 0 min 2 min 0 W/m 41,8 km/h (6 Bft) 97,87 %
02.02.2016 04:26 10,8 C 10,6 C 8,9 C 91 % 15 lf 1015,1 hPa 0,0 l/m 0 min 2 min 0 W/m 37,7 km/h (5 Bft) 95,74 %
02.02.2016 04:28 10,8 C 10,0 C 8,9 C 91 % 15 lf 1015,1 hPa 0,0 l/m 0 min 2 min 0 W/m 41,8 km/h (6 Bft) 86,96 %
02.02.2016 04:30 10,8 C 10,0 C 8,9 C 92 % 15 lf 1015,1 hPa 0,0 l/m 0 min 2 min 0 W/m 33,5 km/h (5 Bft) 93,62 %
02.02.2016 04:32 10,8 C 10,0 C 8,9 C 92 % 15 lf 1015,0 hPa 0,0 l/m 0 min 2 min 0 W/m 41,8 km/h (6 Bft) 95,74 %
02.02.2016 04:34 10,7 C 10,6 C 8,9 C 92 % 15 lf 1015,1 hPa 0,0 l/m 0 min 2 min 0 W/m 37,7 km/h (5 Bft) 97,87 %
02.02.2016 04:36 10,7 C 10,6 C 8,9 C 92 % 14 lf 1015,0 hPa 0,0 l/m 0 min 2 min 0 W/m 37,7 km/h (5 Bft) 95,74 %
02.02.2016 04:38 10,7 C 10,6 C 8,9 C 92 % 14 lf 1015,0 hPa 0,0 l/m 0 min 2 min 0 W/m 41,8 km/h (6 Bft) 93,62 %
02.02.2016 04:40 10,7 C 10,6 C 8,9 C 93 % 13 lf 1015,0 hPa 0,0 l/m 0 min 2 min 0 W/m 54,4 km/h (7 Bft) 95,65 %
02.02.2016 04:42 10,7 C 10,6 C 8,9 C 93 % 12 lf 1015,0 hPa 0,0 l/m 0 min 2 min 0 W/m 41,8 km/h (6 Bft) 95,74 %
02.02.2016 04:44 10,7 C 10,6 C 8,9 C 92 % 9 lf 1014,8 hPa 0,0 l/m 0 min 2 min 0 W/m 56,5 km/h (7 Bft) 95,74 %
02.02.2016 04:46 10,6 C 10,6 C 8,9 C 93 % 6 lf 1014,9 hPa 0,0 l/m 0 min 2 min 0 W/m 56,5 km/h (7 Bft) 93,62 %
02.02.2016 04:48 10,6 C 10,6 C 8,9 C 93 % 4 lf 1014,9 hPa 0,0 l/m 0 min 2 min 0 W/m 48,1 km/h (6 Bft) 93,62 %
02.02.2016 04:50 10,6 C 10,6 C 8,9 C 92 % 3 lf 1015,0 hPa 0,0 l/m 0 min 2 min 0 W/m 50,2 km/h (7 Bft) 95,65 %
02.02.2016 04:52 10,6 C 10,6 C 8,9 C 92 % 2 lf 1014,8 hPa 0,0 l/m 0 min 2 min 0 W/m 41,8 km/h (6 Bft) 95,74 %
02.02.2016 04:54 10,6 C 10,6 C 8,9 C 92 % 0 lf 1014,8 hPa 0,0 l/m 0 min 2 min 0 W/m 46,0 km/h (6 Bft) 93,62 %
02.02.2016 04:56 10,6 C 10,6 C 8,9 C 92 % 0 lf 1014,8 hPa 0,0 l/m 0 min 0 min 0 W/m 43,9 km/h (6 Bft) 93,62 %
02.02.2016 04:58 10,6 C 10,6 C 8,9 C 92 % 0 lf 1014,9 hPa 0,0 l/m 0 min 0 min 0 W/m 56,5 km/h (7 Bft) 95,74 %
02.02.2016 05:00 10,6 C 10,6 C 8,9 C 92 % 0 lf 1014,8 hPa 0,0 l/m 0 min 2 min 0 W/m 41,8 km/h (6 Bft) 91,49 %
02.02.2016 05:02 10,6 C 10,6 C 8,9 C 92 % 0 lf 1014,8 hPa 0,0 l/m 0 min 0 min 0 W/m 58,6 km/h (7 Bft) 97,83 %
02.02.2016 05:04 10,5 C 10,6 C 8,9 C 91 % 0 lf 1014,7 hPa 0,0 l/m 0 min 0 min 0 W/m 54,4 km/h (7 Bft) 91,49 %
02.02.2016 05:06 10,5 C 10,6 C 8,9 C 91 % 0 lf 1014,8 hPa 0,0 l/m 0 min 0 min 0 W/m 46,0 km/h (6 Bft) 91,49 %
02.02.2016 05:08 10,5 C 10,6 C 8,9 C 91 % 0 lf 1014,8 hPa 0,0 l/m 0 min 0 min 0 W/m 37,7 km/h (5 Bft) 91,49 %
02.02.2016 05:10 10,5 C 10,6 C 8,9 C 91 % 0 lf 1014,8 hPa 0,0 l/m 0 min 0 min 0 W/m 52,3 km/h (7 Bft) 95,74 %
02.02.2016 05:12 10,4 C 10,6 C 8,9 C 90 % 0 lf 1014,9 hPa 0,0 l/m 0 min 0 min 0 W/m 46,0 km/h (6 Bft) 95,74 %
02.02.2016 05:14 10,5 C 10,6 C 8,9 C 90 % 0 lf 1014,8 hPa 0,0 l/m 0 min 0 min 0 W/m 52,3 km/h (7 Bft) 97,83 %
02.02.2016 05:16 10,5 C 10,6 C 8,9 C 90 % 0 lf 1014,9 hPa 0,0 l/m 0 min 0 min 0 W/m 33,5 km/h (5 Bft) 91,49 %
02.02.2016 05:18 10,5 C 10,6 C 8,9 C 90 % 0 lf 1014,8 hPa 0,0 l/m 0 min 0 min 0 W/m 41,8 km/h (6 Bft) 93,62 %
02.02.2016 05:20 10,5 C 10,6 C 8,9 C 90 % 0 lf 1014,8 hPa 0,0 l/m 0 min 0 min 0 W/m 41,8 km/h (6 Bft) 93,62 %
02.02.2016 05:22 10,5 C 10,6 C 8,9 C 90 % 0 lf 1014,8 hPa 0,0 l/m 0 min 0 min 0 W/m 43,9 km/h (6 Bft) 97,87 %
02.02.2016 05:24 10,5 C 10,6 C 8,9 C 90 % 0 lf 1014,8 hPa 0,0 l/m 0 min 0 min 0 W/m 46,0 km/h (6 Bft) 95,74 %
02.02.2016 05:26 10,6 C 11,1 C 9,4 C 90 % 0 lf 1014,8 hPa 0,0 l/m 0 min 0 min 0 W/m 39,7 km/h (6 Bft) 97,83 %
02.02.2016 05:28 10,6 C 10,6 C 9,4 C 89 % 0 lf 1014,7 hPa 0,0 l/m 0 min 0 min 0 W/m 50,2 km/h (7 Bft) 93,62 %
02.02.2016 05:30 10,6 C 10,6 C 9,4 C 89 % 0 lf 1014,8 hPa 0,0 l/m 0 min 0 min 0 W/m 33,5 km/h (5 Bft) 97,87 %
02.02.2016 05:32 10,6 C 10,6 C 9,4 C 89 % 0 lf 1014,8 hPa 0,0 l/m 0 min 0 min 0 W/m 37,7 km/h (5 Bft) 97,87 %
02.02.2016 05:34 10,6 C 10,6 C 8,9 C 89 % 0 lf 1014,7 hPa 0,0 l/m 0 min 0 min 0 W/m 48,1 km/h (6 Bft) 95,74 %
02.02.2016 05:36 10,6 C 10,6 C 9,4 C 89 % 0 lf 1014,7 hPa 0,0 l/m 0 min 0 min 0 W/m 46,0 km/h (6 Bft) 93,62 %
02.02.2016 05:38 10,6 C 10,6 C 9,4 C 88 % 0 lf 1014,7 hPa 0,0 l/m 0 min 0 min 0 W/m 54,4 km/h (7 Bft) 95,65 %
02.02.2016 05:40 10,6 C 11,1 C 9,4 C 88 % 0 lf 1014,7 hPa 0,0 l/m 0 min 0 min 0 W/m 46,0 km/h (6 Bft) 97,87 %
02.02.2016 05:42 10,6 C 11,1 C 9,4 C 88 % 2 lf 1014,7 hPa 0,0 l/m 0 min 2 min 0 W/m 33,5 km/h (5 Bft) 97,87 %
02.02.2016 05:44 10,6 C 10,6 C 8,9 C 88 % 2 lf 1014,8 hPa 0,0 l/m 0 min 2 min 0 W/m 50,2 km/h (7 Bft) 89,36 %
02.02.2016 05:46 10,6 C 10,6 C 8,9 C 88 % 0 lf 1014,6 hPa 0,0 l/m 0 min 0 min 0 W/m 35,6 km/h (5 Bft) 95,74 %
02.02.2016 05:48 10,6 C 10,6 C 8,9 C 87 % 0 lf 1014,7 hPa 0,0 l/m 0 min 0 min 0 W/m 35,6 km/h (5 Bft) 97,83 %
02.02.2016 05:50 10,6 C 10,6 C 8,9 C 87 % 0 lf 1014,6 hPa 0,0 l/m 0 min 0 min 0 W/m 48,1 km/h (6 Bft) 95,74 %
02.02.2016 05:52 10,6 C 10,6 C 8,9 C 87 % 0 lf 1014,7 hPa 0,0 l/m 0 min 0 min 0 W/m 35,6 km/h (5 Bft) 97,87 %
02.02.2016 05:54 10,5 C 10,6 C 8,9 C 87 % 0 lf 1014,7 hPa 0,0 l/m 0 min 0 min 0 W/m 37,7 km/h (5 Bft) 100,00 %
02.02.2016 05:56 10,5 C 10,6 C 8,9 C 87 % 0 lf 1014,8 hPa 0,0 l/m 0 min 0 min 0 W/m 46,0 km/h (6 Bft) 100,00 %
02.02.2016 05:58 10,5 C 10,6 C 8,9 C 86 % 0 lf 1014,7 hPa 0,0 l/m 0 min 0 min 0 W/m 37,7 km/h (5 Bft) 100,00 %
02.02.2016 06:00 10,5 C 10,6 C 8,9 C 86 % 0 lf 1014,7 hPa 0,0 l/m 0 min 0 min 0 W/m 37,7 km/h (5 Bft) 97,83 %
02.02.2016 06:02 10,5 C 10,6 C 8,9 C 86 % 1 lf 1014,6 hPa 0,0 l/m 0 min 0 min 0 W/m 33,5 km/h (5 Bft) 100,00 %
02.02.2016 06:04 10,4 C 10,6 C 8,9 C 85 % 1 lf 1014,6 hPa 0,0 l/m 0 min 2 min 0 W/m 48,1 km/h (6 Bft) 95,74 %
02.02.2016 06:06 10,4 C 10,6 C 8,9 C 85 % 4 lf 1014,6 hPa 0,0 l/m 0 min 2 min 0 W/m 37,7 km/h (5 Bft) 97,87 %
02.02.2016 06:08 10,4 C 10,6 C 8,9 C 85 % 2 lf 1014,7 hPa 0,0 l/m 0 min 2 min 0 W/m 46,0 km/h (6 Bft) 100,00 %
02.02.2016 06:10 10,4 C 10,6 C 8,9 C 85 % 0 lf 1014,6 hPa 0,0 l/m 0 min 0 min 0 W/m 43,9 km/h (6 Bft) 100,00 %
02.02.2016 06:12 10,4 C 10,6 C 8,9 C 85 % 0 lf 1014,7 hPa 0,0 l/m 0 min 0 min 0 W/m 46,0 km/h (6 Bft) 97,87 %
02.02.2016 06:14 10,4 C 10,6 C 8,9 C 84 % 0 lf 1014,6 hPa 0,0 l/m 0 min 2 min 0 W/m 46,0 km/h (6 Bft) 97,83 %
02.02.2016 06:16 10,4 C 10,6 C 8,9 C 84 % 1 lf 1014,6 hPa 0,0 l/m 0 min 0 min 0 W/m 62,8 km/h (8 Bft) 97,87 %
02.02.2016 06:18 10,4 C 10,6 C 8,9 C 84 % 0 lf 1014,6 hPa 0,0 l/m 0 min 0 min 0 W/m 41,8 km/h (6 Bft) 100,00 %
02.02.2016 06:20 10,4 C 10,6 C 8,9 C 84 % 0 lf 1014,6 hPa 0,0 l/m 0 min 0 min 0 W/m 37,7 km/h (5 Bft) 95,74 %
02.02.2016 06:22 10,4 C 10,6 C 8,9 C 84 % 0 lf 1014,7 hPa 0,0 l/m 0 min 0 min 0 W/m 48,1 km/h (6 Bft) 100,00 %
02.02.2016 06:24 10,3 C 10,6 C 8,9 C 84 % 0 lf 1014,7 hPa 0,0 l/m 0 min 0 min 0 W/m 33,5 km/h (5 Bft) 100,00 %
02.02.2016 06:26 10,3 C 10,6 C 8,9 C 84 % 0 lf 1014,7 hPa 0,0 l/m 0 min 0 min 0 W/m 46,0 km/h (6 Bft) 97,87 %
02.02.2016 06:28 10,3 C 10,6 C 8,9 C 84 % 0 lf 1014,8 hPa 0,0 l/m 0 min 0 min 0 W/m 41,8 km/h (6 Bft) 95,74 %
02.02.2016 06:30 10,3 C 10,6 C 8,9 C 84 % 0 lf 1014,7 hPa 0,0 l/m 0 min 2 min 0 W/m 39,7 km/h (6 Bft) 95,74 %
02.02.2016 06:32 10,3 C 10,6 C 8,9 C 84 % 0 lf 1014,7 hPa 0,0 l/m 0 min 0 min 0 W/m 41,8 km/h (6 Bft) 97,87 %
02.02.2016 06:34 10,3 C 10,6 C 8,9 C 84 % 0 lf 1014,7 hPa 0,0 l/m 0 min 0 min 0 W/m 31,4 km/h (5 Bft) 97,87 %
02.02.2016 06:36 10,3 C 10,6 C 8,9 C 84 % 0 lf 1014,5 hPa 0,0 l/m 0 min 0 min 0 W/m 39,7 km/h (6 Bft) 95,65 %
02.02.2016 06:38 10,3 C 10,0 C 8,9 C 84 % 0 lf 1014,4 hPa 0,0 l/m 0 min 0 min 0 W/m 31,4 km/h (5 Bft) 95,74 %
02.02.2016 06:40 10,3 C 10,6 C 8,9 C 84 % 0 lf 1014,5 hPa 0,0 l/m 0 min 0 min 0 W/m 41,8 km/h (6 Bft) 93,62 %
02.02.2016 06:42 10,2 C 10,6 C 8,9 C 85 % 0 lf 1014,4 hPa 0,0 l/m 0 min 0 min 0 W/m 37,7 km/h (5 Bft) 95,74 %
02.02.2016 06:44 10,2 C 10,6 C 8,9 C 85 % 0 lf 1014,5 hPa 0,0 l/m 0 min 0 min 0 W/m 48,1 km/h (6 Bft) 93,62 %
02.02.2016 06:46 10,2 C 10,0 C 8,9 C 85 % 0 lf 1014,5 hPa 0,0 l/m 0 min 0 min 0 W/m 43,9 km/h (6 Bft) 91,49 %
02.02.2016 06:48 10,2 C 10,0 C 8,9 C 85 % 0 lf 1014,5 hPa 0,0 l/m 0 min 0 min 0 W/m 37,7 km/h (5 Bft) 93,48 %
02.02.2016 06:50 10,2 C 10,0 C 8,3 C 85 % 0 lf 1014,6 hPa 0,0 l/m 0 min 0 min 0 W/m 39,7 km/h (6 Bft) 91,49 %
02.02.2016 06:52 10,1 C 10,0 C 8,9 C 85 % 1 lf 1014,6 hPa 0,0 l/m 0 min 2 min 0 W/m 50,2 km/h (7 Bft) 95,74 %
02.02.2016 06:54 10,1 C 10,0 C 8,9 C 85 % 0 lf 1014,6 hPa 0,0 l/m 0 min 2 min 0 W/m 39,7 km/h (6 Bft) 95,74 %
02.02.2016 06:56 10,1 C 10,0 C 8,3 C 85 % 0 lf 1014,7 hPa 0,0 l/m 0 min 0 min 0 W/m 37,7 km/h (5 Bft) 93,62 %
02.02.2016 06:58 10,1 C 10,0 C 8,3 C 85 % 0 lf 1014,7 hPa 0,0 l/m 0 min 0 min 0 W/m 41,8 km/h (6 Bft) 89,36 %
02.02.2016 07:00 10,1 C 10,0 C 8,3 C 85 % 0 lf 1014,6 hPa 0,0 l/m 0 min 0 min 0 W/m 39,7 km/h (6 Bft) 95,65 %
02.02.2016 07:02 10,0 C 10,0 C 8,3 C 85 % 0 lf 1014,6 hPa 0,0 l/m 0 min 0 min 0 W/m 31,4 km/h (5 Bft) 89,36 %
02.02.2016 07:04 10,0 C 10,0 C 8,3 C 85 % 0 lf 1014,5 hPa 0,0 l/m 0 min 0 min 0 W/m 37,7 km/h (5 Bft) 95,74 %
02.02.2016 07:06 9,9 C 10,0 C 8,3 C 85 % 0 lf 1014,6 hPa 0,0 l/m 0 min 0 min 0 W/m 33,5 km/h (5 Bft) 95,74 %
02.02.2016 07:08 9,9 C 10,0 C 8,3 C 85 % 0 lf 1014,5 hPa 0,0 l/m 0 min 0 min 0 W/m 39,7 km/h (6 Bft) 95,74 %
02.02.2016 07:10 9,9 C 10,0 C 8,3 C 85 % 0 lf 1014,6 hPa 0,0 l/m 0 min 0 min 0 W/m 35,6 km/h (5 Bft) 95,65 %
02.02.2016 07:12 9,9 C 10,0 C 8,3 C 85 % 0 lf 1014,6 hPa 0,0 l/m 0 min 0 min 0 W/m 33,5 km/h (5 Bft) 97,87 %
02.02.2016 07:14 9,9 C 10,0 C 8,3 C 85 % 0 lf 1014,6 hPa 0,0 l/m 0 min 0 min 0 W/m 33,5 km/h (5 Bft) 93,62 %
02.02.2016 07:16 9,9 C 10,0 C 8,3 C 85 % 0 lf 1014,5 hPa 0,0 l/m 0 min 0 min 0 W/m 33,5 km/h (5 Bft) 95,74 %
02.02.2016 07:18 9,8 C 10,0 C 8,3 C 85 % 0 lf 1014,6 hPa 0,0 l/m 0 min 0 min 0 W/m 33,5 km/h (5 Bft) 91,49 %
02.02.2016 07:20 9,8 C 10,0 C 8,3 C 85 % 0 lf 1014,6 hPa 0,0 l/m 0 min 0 min 0 W/m 31,4 km/h (5 Bft) 93,62 %
02.02.2016 07:22 9,8 C 10,0 C 8,3 C 86 % 0 lf 1014,5 hPa 0,0 l/m 0 min 0 min 0 W/m 39,7 km/h (6 Bft) 97,83 %
02.02.2016 07:24 9,8 C 10,0 C 8,3 C 86 % 0 lf 1014,5 hPa 0,0 l/m 0 min 0 min 0 W/m 33,5 km/h (5 Bft) 100,00 %
02.02.2016 07:26 9,7 C 10,0 C 8,3 C 86 % 0 lf 1014,5 hPa 0,0 l/m 0 min 0 min 0 W/m 33,5 km/h (5 Bft) 97,87 %
02.02.2016 07:28 9,7 C 10,0 C 8,3 C 86 % 0 lf 1014,5 hPa 0,0 l/m 0 min 0 min 0 W/m 33,5 km/h (5 Bft) 100,00 %
02.02.2016 07:30 9,7 C 9,4 C 8,3 C 86 % 0 lf 1014,5 hPa 0,0 l/m 0 min 0 min 0 W/m 33,5 km/h (5 Bft) 97,87 %
02.02.2016 07:32 9,7 C 9,4 C 8,3 C 86 % 0 lf 1014,5 hPa 0,0 l/m 0 min 0 min 0 W/m 23,0 km/h (4 Bft) 95,74 %
02.02.2016 07:34 9,7 C 9,4 C 8,3 C 86 % 0 lf 1014,4 hPa 0,0 l/m 0 min 0 min 0 W/m 31,4 km/h (5 Bft) 95,65 %
02.02.2016 07:36 9,6 C 9,4 C 7,8 C 87 % 0 lf 1014,5 hPa 0,0 l/m 0 min 0 min 0 W/m 29,3 km/h (5 Bft) 100,00 %
02.02.2016 07:38 9,6 C 9,4 C 8,3 C 87 % 0 lf 1014,5 hPa 0,0 l/m 0 min 0 min 0 W/m 35,6 km/h (5 Bft) 97,87 %
02.02.2016 07:40 9,6 C 9,4 C 7,8 C 87 % 0 lf 1014,5 hPa 0,0 l/m 0 min 0 min 0 W/m 31,4 km/h (5 Bft) 95,74 %
02.02.2016 07:42 9,6 C 9,4 C 7,8 C 87 % 0 lf 1014,5 hPa 0,0 l/m 0 min 0 min 0 W/m 31,4 km/h (5 Bft) 95,74 %
02.02.2016 07:44 9,5 C 9,4 C 7,8 C 87 % 0 lf 1014,5 hPa 0,0 l/m 0 min 0 min 0 W/m 33,5 km/h (5 Bft) 97,87 %
02.02.2016 07:46 9,5 C 9,4 C 7,8 C 87 % 0 lf 1014,5 hPa 0,0 l/m 0 min 0 min 0 W/m 37,7 km/h (5 Bft) 100,00 %
02.02.2016 07:48 9,4 C 9,4 C 7,8 C 87 % 0 lf 1014,5 hPa 0,0 l/m 0 min 0 min 0 W/m 37,7 km/h (5 Bft) 97,87 %
02.02.2016 07:50 9,4 C 9,4 C 7,8 C 88 % 0 lf 1014,6 hPa 0,0 l/m 0 min 0 min 0 W/m 25,1 km/h (4 Bft) 95,74 %
02.02.2016 07:52 9,4 C 9,4 C 7,8 C 88 % 0 lf 1014,5 hPa 0,0 l/m 0 min 0 min 0 W/m 33,5 km/h (5 Bft) 95,74 %
02.02.2016 07:54 9,4 C 9,4 C 7,8 C 88 % 0 lf 1014,5 hPa 0,0 l/m 0 min 0 min 0 W/m 35,6 km/h (5 Bft) 95,74 %
02.02.2016 07:56 9,4 C 9,4 C 7,8 C 88 % 0 lf 1014,5 hPa 0,0 l/m 0 min 0 min 0 W/m 33,5 km/h (5 Bft) 91,49 %
02.02.2016 07:58 9,4 C 9,4 C 7,8 C 88 % 0 lf 1014,5 hPa 0,0 l/m 0 min 0 min 0 W/m 31,4 km/h (5 Bft) 95,65 %
02.02.2016 08:00 9,4 C 9,4 C 7,8 C 88 % 0 lf 1014,5 hPa 0,0 l/m 0 min 0 min 0 W/m 39,7 km/h (6 Bft) 95,74 %
02.02.2016 08:02 9,4 C 9,4 C 7,8 C 88 % 1 lf 1014,5 hPa 0,0 l/m 0 min 0 min 0 W/m 39,7 km/h (6 Bft) 93,62 %
02.02.2016 08:04 9,4 C 9,4 C 7,8 C 88 % 2 lf 1014,5 hPa 0,0 l/m 0 min 0 min 0 W/m 33,5 km/h (5 Bft) 95,74 %
02.02.2016 08:06 9,4 C 9,4 C 7,8 C 88 % 5 lf 1014,6 hPa 0,0 l/m 0 min 2 min 0 W/m 37,7 km/h (5 Bft) 91,49 %
02.02.2016 08:08 9,4 C 8,9 C 7,8 C 89 % 13 lf 1014,6 hPa 0,0 l/m 0 min 2 min 0 W/m 37,7 km/h (5 Bft) 89,36 %
02.02.2016 08:10 9,3 C 8,9 C 7,8 C 89 % 14 lf 1014,6 hPa 0,0 l/m 0 min 2 min 0 W/m 48,1 km/h (6 Bft) 91,30 %
02.02.2016 08:12 9,3 C 8,9 C 7,2 C 89 % 14 lf 1014,5 hPa 0,0 l/m 0 min 2 min 0 W/m 35,6 km/h (5 Bft) 93,62 %
02.02.2016 08:14 9,3 C 8,9 C 7,2 C 89 % 15 lf 1014,4 hPa 0,0 l/m 0 min 2 min 0 W/m 33,5 km/h (5 Bft) 95,74 %
02.02.2016 08:16 9,3 C 8,9 C 7,2 C 89 % 15 lf 1014,5 hPa 0,0 l/m 0 min 2 min 3 W/m 46,0 km/h (6 Bft) 93,62 %
02.02.2016 08:18 9,2 C 8,9 C 7,2 C 90 % 15 lf 1014,4 hPa 0,0 l/m 0 min 2 min 5 W/m 31,4 km/h (5 Bft) 91,49 %
02.02.2016 08:20 9,2 C 8,3 C 7,2 C 90 % 15 lf 1014,5 hPa 0,0 l/m 0 min 2 min 5 W/m 31,4 km/h (5 Bft) 95,74 %
02.02.2016 08:22 9,2 C 8,9 C 7,2 C 90 % 15 lf 1014,4 hPa 0,0 l/m 0 min 2 min 5 W/m 37,7 km/h (5 Bft) 93,48 %
02.02.2016 08:24 9,2 C 8,9 C 7,2 C 91 % 15 lf 1014,4 hPa 0,0 l/m 0 min 2 min 6 W/m 35,6 km/h (5 Bft) 93,62 %
02.02.2016 08:26 9,1 C 8,9 C 7,2 C 91 % 15 lf 1014,5 hPa 0,0 l/m 0 min 2 min 8 W/m 35,6 km/h (5 Bft) 91,49 %
02.02.2016 08:28 9,1 C 8,9 C 7,2 C 91 % 15 lf 1014,4 hPa 0,0 l/m 0 min 2 min 9 W/m 39,7 km/h (6 Bft) 91,49 %
02.02.2016 08:30 9,1 C 8,3 C 7,2 C 91 % 15 lf 1014,4 hPa 0,0 l/m 0 min 2 min 10 W/m 37,7 km/h (5 Bft) 91,49 %
02.02.2016 08:32 9,1 C 8,3 C 7,2 C 92 % 15 lf 1014,3 hPa 0,0 l/m 0 min 2 min 11 W/m 37,7 km/h (5 Bft) 93,62 %
02.02.2016 08:34 9,1 C 8,3 C 7,2 C 92 % 15 lf 1014,4 hPa 0,0 l/m 0 min 2 min 12 W/m 39,7 km/h (6 Bft) 93,48 %
02.02.2016 08:36 9,0 C 8,3 C 7,2 C 92 % 15 lf 1014,5 hPa 0,0 l/m 0 min 2 min 12 W/m 35,6 km/h (5 Bft) 93,62 %
02.02.2016 08:38 9,0 C 8,3 C 7,2 C 92 % 15 lf 1014,4 hPa 0,0 l/m 0 min 2 min 13 W/m 33,5 km/h (5 Bft) 95,74 %
02.02.2016 08:40 9,0 C 8,3 C 7,2 C 92 % 15 lf 1014,3 hPa 0,2 l/m 0 min 2 min 13 W/m 39,7 km/h (6 Bft) 89,36 %
02.02.2016 08:42 9,0 C 8,3 C 7,2 C 93 % 15 lf 1014,3 hPa 0,0 l/m 0 min 2 min 13 W/m 37,7 km/h (5 Bft) 93,62 %
02.02.2016 08:44 9,0 C 8,3 C 7,2 C 93 % 15 lf 1014,2 hPa 0,0 l/m 0 min 2 min 15 W/m 37,7 km/h (5 Bft) 97,87 %
02.02.2016 08:46 8,9 C 8,3 C 7,2 C 93 % 15 lf 1014,2 hPa 0,0 l/m 0 min 2 min 15 W/m 33,5 km/h (5 Bft) 95,65 %
02.02.2016 08:48 8,9 C 8,3 C 7,2 C 93 % 15 lf 1014,3 hPa 0,0 l/m 0 min 2 min 12 W/m 29,3 km/h (5 Bft) 95,74 %
02.02.2016 08:50 8,9 C 8,3 C 7,2 C 93 % 15 lf 1014,3 hPa 0,0 l/m 0 min 0 min 13 W/m 31,4 km/h (5 Bft) 95,74 %
02.02.2016 08:52 8,9 C 8,3 C 7,2 C 93 % 15 lf 1014,3 hPa 0,0 l/m 0 min 2 min 18 W/m 31,4 km/h (5 Bft) 95,74 %
02.02.2016 08:54 8,9 C 8,3 C 7,2 C 93 % 15 lf 1014,2 hPa 0,0 l/m 0 min 2 min 19 W/m 35,6 km/h (5 Bft) 95,74 %
02.02.2016 08:56 8,9 C 8,3 C 7,2 C 94 % 15 lf 1014,2 hPa 0,0 l/m 0 min 2 min 17 W/m 35,6 km/h (5 Bft) 97,83 %
02.02.2016 08:58 8,9 C 8,3 C 7,2 C 94 % 15 lf 1014,3 hPa 0,0 l/m 0 min 0 min 14 W/m 33,5 km/h (5 Bft) 95,74 %
02.02.2016 09:00 8,9 C 8,9 C 7,2 C 94 % 15 lf 1014,2 hPa 0,0 l/m 0 min 0 min 16 W/m 29,3 km/h (5 Bft) 93,62 %
02.02.2016 09:02 8,9 C 8,9 C 7,2 C 94 % 15 lf 1014,2 hPa 0,0 l/m 0 min 0 min 19 W/m 27,2 km/h (4 Bft) 97,87 %
02.02.2016 09:04 8,9 C 8,9 C 7,2 C 94 % 15 lf 1014,3 hPa 0,0 l/m 0 min 2 min 17 W/m 33,5 km/h (5 Bft) 97,87 %
02.02.2016 09:06 8,9 C 8,9 C 7,2 C 94 % 15 lf 1014,3 hPa 0,0 l/m 0 min 2 min 19 W/m 31,4 km/h (5 Bft) 100,00 %
02.02.2016 09:08 8,9 C 8,9 C 7,2 C 94 % 15 lf 1014,5 hPa 0,0 l/m 0 min 2 min 23 W/m 39,7 km/h (6 Bft) 100,00 %
02.02.2016 09:10 8,9 C 8,9 C 7,2 C 94 % 15 lf 1014,4 hPa 0,0 l/m 0 min 2 min 27 W/m 35,6 km/h (5 Bft) 97,87 %
02.02.2016 09:12 8,9 C 8,3 C 7,2 C 95 % 15 lf 1014,4 hPa 0,0 l/m 0 min 2 min 28 W/m 33,5 km/h (5 Bft) 97,87 %
02.02.2016 09:14 8,9 C 8,3 C 7,2 C 95 % 15 lf 1014,4 hPa 0,2 l/m 0 min 2 min 32 W/m 25,1 km/h (4 Bft) 100,00 %
02.02.2016 09:16 8,9 C 8,3 C 7,2 C 95 % 15 lf 1014,4 hPa 0,0 l/m 0 min 2 min 32 W/m 31,4 km/h (5 Bft) 95,74 %
02.02.2016 09:18 8,9 C 8,3 C 7,2 C 95 % 15 lf 1014,3 hPa 0,0 l/m 0 min 2 min 34 W/m 29,3 km/h (5 Bft) 100,00 %
02.02.2016 09:20 8,9 C 8,3 C 7,2 C 95 % 15 lf 1014,2 hPa 0,2 l/m 0 min 2 min 46 W/m 33,5 km/h (5 Bft) 97,83 %
02.02.2016 09:22 8,9 C 8,3 C 7,2 C 95 % 15 lf 1014,3 hPa 0,0 l/m 0 min 2 min 44 W/m 29,3 km/h (5 Bft) 95,74 %
02.02.2016 09:24 8,9 C 8,3 C 7,2 C 95 % 15 lf 1014,4 hPa 0,0 l/m 0 min 2 min 41 W/m 33,5 km/h (5 Bft) 97,87 %
02.02.2016 09:26 8,9 C 8,3 C 7,2 C 95 % 15 lf 1014,4 hPa 0,0 l/m 0 min 2 min 42 W/m 27,2 km/h (4 Bft) 95,74 %
02.02.2016 09:28 8,9 C 8,3 C 7,2 C 95 % 15 lf 1014,3 hPa 0,2 l/m 0 min 2 min 55 W/m 39,7 km/h (6 Bft) 97,87 %
02.02.2016 09:30 8,9 C 8,3 C 7,2 C 95 % 15 lf 1014,4 hPa 0,0 l/m 0 min 2 min 61 W/m 29,3 km/h (5 Bft) 95,83 %
02.02.2016 09:32 8,9 C 8,3 C 7,2 C 95 % 15 lf 1014,4 hPa 0,0 l/m 0 min 2 min 43 W/m 29,3 km/h (5 Bft) 97,83 %
02.02.2016 09:34 8,9 C 8,3 C 7,2 C 95 % 15 lf 1014,4 hPa 0,0 l/m 0 min 2 min 39 W/m 37,7 km/h (5 Bft) 93,62 %
02.02.2016 09:36 8,9 C 8,3 C 7,2 C 95 % 15 lf 1014,3 hPa 0,0 l/m 0 min 2 min 46 W/m 37,7 km/h (5 Bft) 91,49 %
02.02.2016 09:38 8,9 C 8,3 C 7,2 C 95 % 15 lf 1014,3 hPa 0,2 l/m 0 min 2 min 52 W/m 35,6 km/h (5 Bft) 97,87 %
02.02.2016 09:40 8,8 C 8,3 C 7,2 C 95 % 15 lf 1014,3 hPa 0,0 l/m 0 min 0 min 44 W/m 31,4 km/h (5 Bft) 97,92 %
02.02.2016 09:42 8,8 C 8,3 C 7,2 C 95 % 15 lf 1014,3 hPa 0,0 l/m 0 min 0 min 45 W/m 35,6 km/h (5 Bft) 95,65 %
02.02.2016 09:44 8,8 C 8,3 C 7,2 C 95 % 15 lf 1014,4 hPa 0,0 l/m 0 min 2 min 42 W/m 33,5 km/h (5 Bft) 95,74 %
02.02.2016 09:46 8,8 C 8,3 C 7,2 C 95 % 15 lf 1014,4 hPa 0,0 l/m 0 min 0 min 40 W/m 33,5 km/h (5 Bft) 95,74 %
02.02.2016 09:48 8,7 C 8,3 C 7,2 C 95 % 15 lf 1014,5 hPa 0,0 l/m 0 min 2 min 39 W/m 23,0 km/h (4 Bft) 97,87 %
02.02.2016 09:50 8,7 C 8,3 C 7,2 C 95 % 15 lf 1014,4 hPa 0,0 l/m 0 min 2 min 37 W/m 33,5 km/h (5 Bft) 95,74 %
02.02.2016 09:52 8,7 C 8,3 C 7,2 C 95 % 15 lf 1014,4 hPa 0,0 l/m 0 min 2 min 41 W/m 31,4 km/h (5 Bft) 95,74 %
02.02.2016 09:54 8,7 C 8,3 C 7,2 C 95 % 15 lf 1014,4 hPa 0,2 l/m 0 min 2 min 45 W/m 35,6 km/h (5 Bft) 93,48 %
02.02.2016 09:56 8,7 C 8,3 C 7,2 C 95 % 15 lf 1014,2 hPa 0,0 l/m 0 min 2 min 50 W/m 46,0 km/h (6 Bft) 97,87 %
02.02.2016 09:58 8,7 C 8,3 C 7,2 C 95 % 15 lf 1014,2 hPa 0,0 l/m 0 min 2 min 57 W/m 31,4 km/h (5 Bft) 97,87 %
02.02.2016 10:00 8,7 C 8,3 C 7,2 C 96 % 15 lf 1014,2 hPa 0,0 l/m 0 min 2 min 58 W/m 39,7 km/h (6 Bft) 95,74 %
02.02.2016 10:02 8,7 C 8,3 C 7,2 C 95 % 15 lf 1014,1 hPa 0,0 l/m 0 min 2 min 50 W/m 37,7 km/h (5 Bft) 95,74 %
02.02.2016 10:04 8,7 C 8,3 C 7,2 C 95 % 15 lf 1014,2 hPa 0,0 l/m 0 min 2 min 52 W/m 31,4 km/h (5 Bft) 97,87 %
02.02.2016 10:06 8,7 C 8,3 C 7,2 C 95 % 15 lf 1014,1 hPa 0,0 l/m 0 min 2 min 50 W/m 31,4 km/h (5 Bft) 97,83 %
02.02.2016 10:08 8,7 C 8,3 C 7,2 C 95 % 15 lf 1014,1 hPa 0,0 l/m 0 min 2 min 52 W/m 37,7 km/h (5 Bft) 93,62 %
02.02.2016 10:10 8,7 C 8,3 C 7,2 C 95 % 15 lf 1014,0 hPa 0,2 l/m 0 min 2 min 67 W/m 39,7 km/h (6 Bft) 95,74 %
02.02.2016 10:12 8,7 C 8,3 C 7,2 C 96 % 15 lf 1014,1 hPa 0,0 l/m 0 min 2 min 75 W/m 25,1 km/h (4 Bft) 97,87 %
02.02.2016 10:14 8,7 C 8,3 C 7,2 C 96 % 15 lf 1014,1 hPa 0,0 l/m 0 min 2 min 70 W/m 31,4 km/h (5 Bft) 95,74 %
02.02.2016 10:16 8,7 C 8,3 C 7,2 C 96 % 15 lf 1014,1 hPa 0,0 l/m 0 min 2 min 51 W/m 27,2 km/h (4 Bft) 93,62 %
02.02.2016 10:18 8,7 C 8,3 C 7,2 C 96 % 15 lf 1014,0 hPa 0,0 l/m 0 min 2 min 43 W/m 31,4 km/h (5 Bft) 93,48 %
02.02.2016 10:20 8,7 C 8,3 C 7,2 C 96 % 15 lf 1014,1 hPa 0,0 l/m 0 min 2 min 37 W/m 27,2 km/h (4 Bft) 97,87 %
02.02.2016 10:22 8,7 C 8,3 C 7,2 C 96 % 15 lf 1014,0 hPa 0,2 l/m 0 min 2 min 36 W/m 35,6 km/h (5 Bft) 91,49 %
02.02.2016 10:24 8,7 C 8,3 C 7,2 C 96 % 15 lf 1014,0 hPa 0,0 l/m 0 min 2 min 47 W/m 54,4 km/h (7 Bft) 97,87 %
02.02.2016 10:26 8,7 C 8,3 C 7,2 C 96 % 15 lf 1013,9 hPa 0,0 l/m 0 min 2 min 55 W/m 27,2 km/h (4 Bft) 93,62 %
02.02.2016 10:28 8,7 C 8,3 C 7,2 C 96 % 15 lf 1013,9 hPa 0,2 l/m 0 min 2 min 55 W/m 25,1 km/h (4 Bft) 95,74 %
02.02.2016 10:30 8,7 C 8,3 C 7,2 C 96 % 15 lf 1014,0 hPa 0,0 l/m 0 min 2 min 52 W/m 23,0 km/h (4 Bft) 91,30 %
02.02.2016 10:32 8,7 C 8,3 C 7,2 C 96 % 15 lf 1014,0 hPa 0,0 l/m 0 min 2 min 51 W/m 27,2 km/h (4 Bft) 93,62 %
02.02.2016 10:34 8,7 C 8,3 C 7,2 C 96 % 15 lf 1014,0 hPa 0,0 l/m 0 min 2 min 43 W/m 23,0 km/h (4 Bft) 95,74 %
02.02.2016 10:36 8,7 C 8,3 C 7,2 C 96 % 15 lf 1014,1 hPa 0,2 l/m 0 min 2 min 38 W/m 25,1 km/h (4 Bft) 93,62 %
02.02.2016 10:38 8,7 C 8,3 C 7,2 C 96 % 15 lf 1014,0 hPa 0,0 l/m 0 min 2 min 46 W/m 20,9 km/h (4 Bft) 95,74 %
02.02.2016 10:40 8,7 C 8,3 C 7,2 C 96 % 15 lf 1014,0 hPa 0,0 l/m 0 min 2 min 61 W/m 23,0 km/h (4 Bft) 95,65 %
02.02.2016 10:42 8,8 C 8,3 C 7,2 C 96 % 15 lf 1014,0 hPa 0,0 l/m 0 min 2 min 53 W/m 18,8 km/h (3 Bft) 95,74 %
02.02.2016 10:44 8,8 C 8,9 C 7,8 C 96 % 15 lf 1013,9 hPa 0,2 l/m 0 min 2 min 64 W/m 20,9 km/h (4 Bft) 93,62 %
02.02.2016 10:46 8,8 C 8,9 C 7,8 C 96 % 15 lf 1013,9 hPa 0,0 l/m 0 min 2 min 67 W/m 14,6 km/h (3 Bft) 93,62 %
02.02.2016 10:48 8,8 C 8,9 C 7,8 C 96 % 15 lf 1013,9 hPa 0,0 l/m 0 min 2 min 55 W/m 25,1 km/h (4 Bft) 93,62 %
02.02.2016 10:50 8,8 C 8,9 C 7,8 C 96 % 15 lf 1013,9 hPa 0,0 l/m 0 min 2 min 44 W/m 23,0 km/h (4 Bft) 93,62 %
02.02.2016 10:52 8,8 C 8,3 C 7,2 C 96 % 15 lf 1014,0 hPa 0,0 l/m 0 min 0 min 36 W/m 23,0 km/h (4 Bft) 97,83 %
02.02.2016 10:54 8,8 C 8,9 C 7,2 C 96 % 15 lf 1014,0 hPa 0,0 l/m 0 min 2 min 41 W/m 20,9 km/h (4 Bft) 97,87 %
02.02.2016 10:56 8,8 C 8,9 C 7,8 C 96 % 15 lf 1013,9 hPa 0,0 l/m 0 min 2 min 54 W/m 18,8 km/h (3 Bft) 97,87 %
02.02.2016 10:58 8,8 C 8,9 C 7,8 C 96 % 15 lf 1013,9 hPa 0,2 l/m 0 min 2 min 49 W/m 18,8 km/h (3 Bft) 95,74 %
02.02.2016 11:00 8,8 C 8,9 C 7,8 C 96 % 15 lf 1013,9 hPa 0,0 l/m 0 min 2 min 44 W/m 18,8 km/h (3 Bft) 95,74 %
02.02.2016 11:02 8,9 C 8,9 C 7,8 C 96 % 15 lf 1013,8 hPa 0,0 l/m 0 min 2 min 41 W/m 20,9 km/h (4 Bft) 91,49 %
02.02.2016 11:04 8,9 C 8,9 C 7,8 C 96 % 15 lf 1013,7 hPa 0,0 l/m 0 min 2 min 34 W/m 23,0 km/h (4 Bft) 97,83 %
02.02.2016 11:06 8,9 C 8,9 C 7,8 C 96 % 15 lf 1013,8 hPa 0,0 l/m 0 min 2 min 38 W/m 29,3 km/h (5 Bft) 97,87 %
02.02.2016 11:08 8,9 C 8,9 C 7,8 C 97 % 15 lf 1013,9 hPa 0,0 l/m 0 min 2 min 50 W/m 23,0 km/h (4 Bft) 89,36 %
02.02.2016 11:10 8,9 C 8,9 C 7,8 C 97 % 15 lf 1013,9 hPa 0,2 l/m 0 min 2 min 64 W/m 37,7 km/h (5 Bft) 97,87 %
02.02.2016 11:12 8,9 C 8,9 C 7,8 C 96 % 15 lf 1014,0 hPa 0,0 l/m 0 min 2 min 74 W/m 31,4 km/h (5 Bft) 97,87 %
02.02.2016 11:14 8,9 C 8,9 C 7,8 C 96 % 15 lf 1014,0 hPa 0,0 l/m 0 min 2 min 94 W/m 23,0 km/h (4 Bft) 95,74 %
02.02.2016 11:16 8,9 C 8,9 C 7,8 C 97 % 15 lf 1013,9 hPa 0,0 l/m 0 min 2 min 101 W/m 16,7 km/h (3 Bft) 93,48 %
02.02.2016 11:18 8,9 C 8,9 C 7,8 C 97 % 15 lf 1013,8 hPa 0,0 l/m 0 min 2 min 86 W/m 25,1 km/h (4 Bft) 100,00 %
02.02.2016 11:20 8,9 C 8,9 C 7,8 C 96 % 15 lf 1013,6 hPa 0,0 l/m 0 min 0 min 84 W/m 27,2 km/h (4 Bft) 97,87 %
02.02.2016 11:22 8,9 C 8,9 C 7,8 C 96 % 15 lf 1013,6 hPa 0,0 l/m 0 min 2 min 96 W/m 25,1 km/h (4 Bft) 97,87 %
02.02.2016 11:24 8,9 C 8,9 C 7,8 C 97 % 15 lf 1013,5 hPa 0,0 l/m 0 min 2 min 105 W/m 29,3 km/h (5 Bft) 97,87 %
02.02.2016 11:26 8,9 C 8,9 C 7,8 C 96 % 15 lf 1013,6 hPa 0,0 l/m 0 min 2 min 119 W/m 27,2 km/h (4 Bft) 93,62 %
02.02.2016 11:28 8,9 C 8,9 C 7,8 C 96 % 15 lf 1013,6 hPa 0,0 l/m 0 min 2 min 124 W/m 46,0 km/h (6 Bft) 100,00 %
02.02.2016 11:30 8,9 C 8,9 C 7,8 C 96 % 15 lf 1013,6 hPa 0,0 l/m 0 min 2 min 100 W/m 37,7 km/h (5 Bft) 100,00 %
02.02.2016 11:32 8,8 C 8,3 C 7,2 C 96 % 15 lf 1013,6 hPa 0,0 l/m 0 min 2 min 93 W/m 39,7 km/h (6 Bft) 97,87 %
02.02.2016 11:34 8,8 C 8,3 C 7,2 C 96 % 15 lf 1013,6 hPa 0,0 l/m 0 min 2 min 94 W/m 31,4 km/h (5 Bft) 100,00 %
02.02.2016 11:36 8,7 C 8,3 C 7,2 C 96 % 15 lf 1013,6 hPa 0,0 l/m 0 min 2 min 88 W/m 35,6 km/h (5 Bft) 95,74 %
02.02.2016 11:38 8,7 C 8,3 C 7,2 C 96 % 15 lf 1013,5 hPa 0,2 l/m 0 min 2 min 112 W/m 33,5 km/h (5 Bft) 100,00 %
02.02.2016 11:40 8,7 C 8,3 C 7,2 C 96 % 15 lf 1013,6 hPa 0,0 l/m 0 min 2 min 114 W/m 41,8 km/h (6 Bft) 100,00 %
02.02.2016 11:42 8,7 C 8,3 C 7,2 C 96 % 15 lf 1013,5 hPa 0,0 l/m 0 min 2 min 92 W/m 35,6 km/h (5 Bft) 100,00 %
02.02.2016 11:44 8,7 C 8,3 C 7,2 C 96 % 15 lf 1013,5 hPa 0,0 l/m 0 min 2 min 90 W/m 31,4 km/h (5 Bft) 97,87 %
02.02.2016 11:46 8,7 C 8,3 C 7,2 C 96 % 15 lf 1013,6 hPa 0,0 l/m 0 min 2 min 90 W/m 31,4 km/h (5 Bft) 100,00 %
02.02.2016 11:48 8,7 C 8,3 C 7,2 C 96 % 15 lf 1013,5 hPa 0,2 l/m 0 min 2 min 110 W/m 33,5 km/h (5 Bft) 100,00 %
02.02.2016 11:50 8,7 C 8,3 C 7,2 C 96 % 15 lf 1013,4 hPa 0,0 l/m 0 min 2 min 121 W/m 23,0 km/h (4 Bft) 100,00 %
02.02.2016 11:52 8,7 C 8,3 C 7,2 C 96 % 15 lf 1013,5 hPa 0,0 l/m 0 min 2 min 123 W/m 31,4 km/h (5 Bft) 100,00 %
02.02.2016 11:54 8,7 C 8,3 C 7,2 C 96 % 15 lf 1013,4 hPa 0,0 l/m 0 min 2 min 115 W/m 33,5 km/h (5 Bft) 95,74 %
02.02.2016 11:56 8,7 C 8,3 C 7,2 C 96 % 15 lf 1013,4 hPa 0,0 l/m 0 min 2 min 117 W/m 27,2 km/h (4 Bft) 95,74 %
02.02.2016 11:58 8,7 C 8,3 C 7,2 C 96 % 15 lf 1013,3 hPa 0,0 l/m 0 min 2 min 114 W/m 37,7 km/h (5 Bft) 95,74 %
02.02.2016 12:00 8,7 C 8,3 C 7,2 C 96 % 15 lf 1013,3 hPa 0,0 l/m 0 min 2 min 105 W/m 27,2 km/h (4 Bft) 97,87 %
02.02.2016 12:02 8,7 C 8,3 C 7,2 C 96 % 15 lf 1013,2 hPa 0,0 l/m 0 min 2 min 105 W/m 31,4 km/h (5 Bft) 91,30 %
02.02.2016 12:04 8,7 C 8,3 C 7,2 C 96 % 15 lf 1013,3 hPa 0,0 l/m 0 min 2 min 108 W/m 27,2 km/h (4 Bft) 97,92 %
02.02.2016 12:06 8,7 C 8,3 C 7,2 C 96 % 15 lf 1013,2 hPa 0,0 l/m 0 min 2 min 109 W/m 27,2 km/h (4 Bft) 93,62 %
02.02.2016 12:08 8,7 C 8,3 C 7,2 C 96 % 15 lf 1013,1 hPa 0,0 l/m 0 min 2 min 100 W/m 29,3 km/h (5 Bft) 95,74 %
02.02.2016 12:10 8,7 C 8,3 C 7,2 C 95 % 15 lf 1013,2 hPa 0,0 l/m 0 min 2 min 95 W/m 27,2 km/h (4 Bft) 97,87 %
02.02.2016 12:12 8,7 C 8,3 C 7,2 C 95 % 15 lf 1013,1 hPa 0,0 l/m 0 min 2 min 100 W/m 31,4 km/h (5 Bft) 93,62 %
02.02.2016 12:14 8,7 C 8,3 C 7,2 C 95 % 15 lf 1013,2 hPa 0,0 l/m 0 min 0 min 92 W/m 25,1 km/h (4 Bft) 95,65 %
02.02.2016 12:16 8,7 C 8,3 C 7,2 C 95 % 15 lf 1013,2 hPa 0,0 l/m 0 min 0 min 70 W/m 29,3 km/h (5 Bft) 93,62 %
02.02.2016 12:18 8,7 C 8,3 C 7,2 C 95 % 15 lf 1013,2 hPa 0,0 l/m 0 min 2 min 65 W/m 25,1 km/h (4 Bft) 93,62 %
02.02.2016 12:20 8,7 C 8,3 C 7,2 C 95 % 15 lf 1013,2 hPa 0,0 l/m 0 min 2 min 62 W/m 20,9 km/h (4 Bft) 95,74 %
02.02.2016 12:22 8,7 C 8,3 C 7,2 C 95 % 15 lf 1013,1 hPa 0,0 l/m 0 min 2 min 63 W/m 27,2 km/h (4 Bft) 95,74 %
02.02.2016 12:24 8,6 C 8,3 C 7,2 C 95 % 15 lf 1013,1 hPa 0,0 l/m 0 min 2 min 69 W/m 25,1 km/h (4 Bft) 89,36 %
02.02.2016 12:26 8,6 C 8,3 C 7,2 C 95 % 15 lf 1013,1 hPa 0,0 l/m 0 min 2 min 69 W/m 23,0 km/h (4 Bft) 89,13 %
02.02.2016 12:28 8,6 C 8,3 C 7,2 C 95 % 15 lf 1013,0 hPa 0,0 l/m 0 min 2 min 65 W/m 27,2 km/h (4 Bft) 93,62 %
02.02.2016 12:30 8,6 C 8,3 C 6,7 C 95 % 15 lf 1012,9 hPa 0,0 l/m 0 min 2 min 65 W/m 29,3 km/h (5 Bft) 91,49 %
02.02.2016 12:32 8,6 C 8,3 C 6,7 C 95 % 15 lf 1012,9 hPa 0,0 l/m 0 min 2 min 69 W/m 35,6 km/h (5 Bft) 93,62 %
02.02.2016 12:34 8,5 C 7,8 C 6,7 C 95 % 15 lf 1012,9 hPa 0,0 l/m 0 min 2 min 77 W/m 33,5 km/h (5 Bft) 91,49 %
02.02.2016 12:36 8,5 C 8,3 C 6,7 C 95 % 15 lf 1012,9 hPa 0,0 l/m 0 min 2 min 84 W/m 23,0 km/h (4 Bft) 91,49 %
02.02.2016 12:38 8,5 C 8,3 C 7,2 C 95 % 15 lf 1012,8 hPa 0,0 l/m 0 min 2 min 97 W/m 29,3 km/h (5 Bft) 91,30 %
02.02.2016 12:40 8,5 C 8,3 C 7,2 C 95 % 15 lf 1012,7 hPa 0,0 l/m 0 min 2 min 84 W/m 20,9 km/h (4 Bft) 93,62 %
02.02.2016 12:42 8,5 C 8,3 C 6,7 C 95 % 15 lf 1012,6 hPa 0,2 l/m 0 min 2 min 76 W/m 25,1 km/h (4 Bft) 91,49 %
02.02.2016 12:44 8,5 C 8,3 C 6,7 C 95 % 15 lf 1012,6 hPa 0,0 l/m 0 min 2 min 68 W/m 27,2 km/h (4 Bft) 93,62 %
02.02.2016 12:46 8,5 C 8,3 C 6,7 C 95 % 15 lf 1012,5 hPa 0,0 l/m 0 min 2 min 64 W/m 31,4 km/h (5 Bft) 95,74 %
02.02.2016 12:48 8,4 C 8,3 C 6,7 C 94 % 15 lf 1012,6 hPa 0,0 l/m 0 min 2 min 68 W/m 27,2 km/h (4 Bft) 95,74 %
02.02.2016 12:50 8,4 C 7,8 C 6,7 C 94 % 15 lf 1012,5 hPa 0,0 l/m 0 min 2 min 81 W/m 25,1 km/h (4 Bft) 91,30 %
02.02.2016 12:52 8,4 C 8,3 C 6,7 C 94 % 15 lf 1012,6 hPa 0,0 l/m 0 min 2 min 83 W/m 27,2 km/h (4 Bft) 95,74 %
02.02.2016 12:54 8,4 C 8,3 C 6,7 C 94 % 15 lf 1012,5 hPa 0,0 l/m 0 min 2 min 86 W/m 23,0 km/h (4 Bft) 93,62 %
02.02.2016 12:56 8,4 C 8,3 C 6,7 C 94 % 15 lf 1012,4 hPa 0,0 l/m 0 min 2 min 94 W/m 33,5 km/h (5 Bft) 95,74 %
02.02.2016 12:58 8,4 C 7,8 C 6,7 C 94 % 15 lf 1012,4 hPa 0,0 l/m 0 min 2 min 99 W/m 20,9 km/h (4 Bft) 93,62 %
02.02.2016 13:00 8,4 C 7,8 C 6,7 C 94 % 15 lf 1012,3 hPa 0,0 l/m 0 min 2 min 98 W/m 37,7 km/h (5 Bft) 95,74 %
02.02.2016 13:02 8,4 C 7,8 C 6,7 C 94 % 15 lf 1012,3 hPa 0,0 l/m 0 min 2 min 97 W/m 31,4 km/h (5 Bft) 93,48 %
02.02.2016 13:04 8,4 C 7,8 C 6,7 C 94 % 15 lf 1012,3 hPa 0,0 l/m 0 min 2 min 98 W/m 29,3 km/h (5 Bft) 93,62 %
02.02.2016 13:06 8,4 C 8,3 C 6,7 C 94 % 15 lf 1012,3 hPa 0,0 l/m 0 min 2 min 96 W/m 25,1 km/h (4 Bft) 93,62 %
02.02.2016 13:08 8,4 C 8,3 C 6,7 C 94 % 15 lf 1012,3 hPa 0,0 l/m 0 min 2 min 88 W/m 20,9 km/h (4 Bft) 95,74 %
02.02.2016 13:10 8,4 C 8,3 C 6,7 C 94 % 15 lf 1012,3 hPa 0,0 l/m 0 min 2 min 82 W/m 20,9 km/h (4 Bft) 97,87 %
02.02.2016 13:12 8,4 C 8,3 C 6,7 C 94 % 15 lf 1012,2 hPa 0,0 l/m 0 min 0 min 76 W/m 31,4 km/h (5 Bft) 93,48 %
02.02.2016 13:14 8,4 C 8,3 C 7,2 C 94 % 15 lf 1012,2 hPa 0,0 l/m 0 min 0 min 67 W/m 29,3 km/h (5 Bft) 93,62 %
02.02.2016 13:16 8,5 C 8,3 C 6,7 C 94 % 15 lf 1012,1 hPa 0,0 l/m 0 min 2 min 64 W/m 29,3 km/h (5 Bft) 95,74 %
02.02.2016 13:18 8,5 C 8,3 C 6,7 C 94 % 15 lf 1012,2 hPa 0,0 l/m 0 min 2 min 68 W/m 33,5 km/h (5 Bft) 97,87 %
02.02.2016 13:20 8,5 C 8,3 C 7,2 C 94 % 15 lf 1012,2 hPa 0,0 l/m 0 min 2 min 80 W/m 27,2 km/h (4 Bft) 93,62 %
02.02.2016 13:22 8,5 C 8,3 C 6,7 C 94 % 15 lf 1012,2 hPa 0,0 l/m 0 min 2 min 61 W/m 29,3 km/h (5 Bft) 93,62 %
02.02.2016 13:24 8,6 C 7,8 C 6,7 C 94 % 15 lf 1012,2 hPa 0,2 l/m 0 min 2 min 46 W/m 35,6 km/h (5 Bft) 95,65 %
02.02.2016 13:26 8,5 C 7,8 C 6,7 C 94 % 15 lf 1012,3 hPa 0,0 l/m 0 min 2 min 51 W/m 33,5 km/h (5 Bft) 95,74 %
02.02.2016 13:28 8,6 C 8,3 C 6,7 C 94 % 15 lf 1012,4 hPa 0,0 l/m 0 min 2 min 50 W/m 18,8 km/h (3 Bft) 97,87 %
02.02.2016 13:30 8,6 C 8,3 C 6,7 C 94 % 15 lf 1012,3 hPa 0,0 l/m 0 min 2 min 50 W/m 35,6 km/h (5 Bft) 95,74 %
02.02.2016 13:32 8,6 C 8,3 C 6,7 C 94 % 15 lf 1012,3 hPa 0,0 l/m 0 min 2 min 57 W/m 20,9 km/h (4 Bft) 93,62 %
02.02.2016 13:34 8,6 C 8,3 C 7,2 C 94 % 15 lf 1012,2 hPa 0,0 l/m 0 min 2 min 56 W/m 25,1 km/h (4 Bft) 95,74 %
02.02.2016 13:36 8,6 C 8,3 C 7,2 C 94 % 15 lf 1012,2 hPa 0,0 l/m 0 min 2 min 54 W/m 25,1 km/h (4 Bft) 97,83 %
02.02.2016 13:38 8,6 C 8,3 C 7,2 C 94 % 15 lf 1012,1 hPa 0,0 l/m 0 min 2 min 55 W/m 35,6 km/h (5 Bft) 97,87 %
02.02.2016 13:40 8,6 C 7,8 C 6,7 C 94 % 15 lf 1012,0 hPa 0,0 l/m 0 min 2 min 54 W/m 29,3 km/h (5 Bft) 95,74 %
02.02.2016 13:42 8,6 C 8,3 C 6,7 C 94 % 15 lf 1012,0 hPa 0,2 l/m 0 min 2 min 58 W/m 33,5 km/h (5 Bft) 97,87 %
02.02.2016 13:44 8,6 C 8,3 C 7,2 C 94 % 15 lf 1011,9 hPa 0,0 l/m 0 min 2 min 60 W/m 25,1 km/h (4 Bft) 97,87 %
02.02.2016 13:46 8,6 C 8,3 C 7,2 C 94 % 15 lf 1011,8 hPa 0,0 l/m 0 min 2 min 63 W/m 20,9 km/h (4 Bft) 95,74 %
02.02.2016 13:48 8,6 C 8,3 C 7,2 C 94 % 15 lf 1011,7 hPa 0,0 l/m 0 min 2 min 73 W/m 25,1 km/h (4 Bft) 95,65 %
02.02.2016 13:50 8,6 C 8,3 C 6,7 C 94 % 15 lf 1011,7 hPa 0,0 l/m 0 min 2 min 68 W/m 20,9 km/h (4 Bft) 97,87 %
02.02.2016 13:52 8,6 C 8,3 C 7,2 C 95 % 15 lf 1011,7 hPa 0,0 l/m 0 min 2 min 51 W/m 18,8 km/h (3 Bft) 93,62 %
02.02.2016 13:54 8,6 C 7,8 C 6,7 C 95 % 15 lf 1011,6 hPa 0,2 l/m 0 min 2 min 42 W/m 25,1 km/h (4 Bft) 93,62 %
02.02.2016 13:56 8,5 C 7,8 C 6,7 C 95 % 15 lf 1011,7 hPa 0,0 l/m 0 min 2 min 36 W/m 27,2 km/h (4 Bft) 97,87 %
02.02.2016 13:58 8,4 C 7,8 C 6,7 C 95 % 15 lf 1011,7 hPa 0,0 l/m 0 min 2 min 33 W/m 23,0 km/h (4 Bft) 100,00 %
02.02.2016 14:00 8,4 C 7,8 C 6,7 C 94 % 15 lf 1011,6 hPa 0,0 l/m 0 min 2 min 35 W/m 25,1 km/h (4 Bft) 100,00 %
02.02.2016 14:02 8,4 C 7,8 C 6,7 C 94 % 15 lf 1011,7 hPa 0,2 l/m 0 min 2 min 38 W/m 31,4 km/h (5 Bft) 95,74 %
02.02.2016 14:04 8,4 C 7,8 C 6,7 C 94 % 15 lf 1011,7 hPa 0,0 l/m 0 min 2 min 41 W/m 31,4 km/h (5 Bft) 97,87 %
02.02.2016 14:06 8,3 C 7,8 C 6,7 C 95 % 15 lf 1011,6 hPa 0,2 l/m 0 min 2 min 48 W/m 20,9 km/h (4 Bft) 93,62 %
02.02.2016 14:08 8,3 C 7,8 C 6,7 C 95 % 15 lf 1011,6 hPa 0,0 l/m 0 min 2 min 44 W/m 25,1 km/h (4 Bft) 97,87 %
02.02.2016 14:10 8,3 C 7,8 C 6,7 C 95 % 15 lf 1011,7 hPa 0,0 l/m 0 min 2 min 33 W/m 25,1 km/h (4 Bft) 95,74 %
02.02.2016 14:12 8,3 C 7,8 C 6,7 C 95 % 15 lf 1011,6 hPa 0,0 l/m 0 min 2 min 29 W/m 25,1 km/h (4 Bft) 95,65 %
02.02.2016 14:14 8,3 C 7,8 C 6,7 C 95 % 15 lf 1011,7 hPa 0,0 l/m 0 min 2 min 30 W/m 27,2 km/h (4 Bft) 93,62 %
02.02.2016 14:16 8,3 C 7,8 C 6,7 C 95 % 15 lf 1011,7 hPa 0,2 l/m 0 min 2 min 34 W/m 23,0 km/h (4 Bft) 100,00 %
02.02.2016 14:18 8,2 C 7,8 C 6,7 C 95 % 15 lf 1011,6 hPa 0,0 l/m 0 min 2 min 34 W/m 25,1 km/h (4 Bft) 97,87 %
02.02.2016 14:20 8,2 C 7,8 C 6,7 C 95 % 15 lf 1011,7 hPa 0,2 l/m 0 min 2 min 32 W/m 20,9 km/h (4 Bft) 95,74 %
02.02.2016 14:22 8,2 C 7,8 C 6,7 C 95 % 15 lf 1011,7 hPa 0,0 l/m 0 min 2 min 30 W/m 25,1 km/h (4 Bft) 93,48 %
02.02.2016 14:24 8,1 C 7,2 C 6,7 C 95 % 15 lf 1011,8 hPa 0,0 l/m 0 min 2 min 25 W/m 27,2 km/h (4 Bft) 97,87 %
02.02.2016 14:26 8,1 C 7,2 C 6,1 C 95 % 15 lf 1011,8 hPa 0,2 l/m 0 min 2 min 24 W/m 27,2 km/h (4 Bft) 97,87 %
02.02.2016 14:28 8,1 C 7,2 C 6,1 C 95 % 15 lf 1011,8 hPa 0,0 l/m 0 min 2 min 25 W/m 27,2 km/h (4 Bft) 97,87 %
02.02.2016 14:30 8,0 C 7,2 C 6,1 C 95 % 15 lf 1011,7 hPa 0,2 l/m 0 min 2 min 34 W/m 29,3 km/h (5 Bft) 97,87 %
02.02.2016 14:32 7,9 C 7,2 C 6,1 C 95 % 15 lf 1011,6 hPa 0,0 l/m 0 min 2 min 42 W/m 29,3 km/h (5 Bft) 95,74 %
02.02.2016 14:34 7,9 C 7,2 C 6,7 C 95 % 15 lf 1011,6 hPa 0,2 l/m 0 min 2 min 44 W/m 25,1 km/h (4 Bft) 95,65 %
02.02.2016 14:36 7,9 C 7,2 C 6,7 C 95 % 15 lf 1011,6 hPa 0,0 l/m 0 min 2 min 37 W/m 20,9 km/h (4 Bft) 95,74 %
02.02.2016 14:38 7,9 C 7,2 C 6,1 C 95 % 15 lf 1011,6 hPa 0,2 l/m 0 min 2 min 33 W/m 29,3 km/h (5 Bft) 100,00 %
02.02.2016 14:40 7,9 C 7,2 C 6,1 C 95 % 15 lf 1011,5 hPa 0,0 l/m 0 min 2 min 35 W/m 27,2 km/h (4 Bft) 93,62 %
02.02.2016 14:42 7,9 C 7,2 C 6,1 C 95 % 15 lf 1011,6 hPa 0,2 l/m 0 min 2 min 31 W/m 25,1 km/h (4 Bft) 100,00 %
02.02.2016 14:44 7,9 C 7,2 C 6,1 C 95 % 15 lf 1011,6 hPa 0,0 l/m 0 min 2 min 30 W/m 23,0 km/h (4 Bft) 95,74 %
02.02.2016 14:46 7,8 C 7,2 C 6,1 C 95 % 15 lf 1011,5 hPa 0,0 l/m 0 min 2 min 33 W/m 31,4 km/h (5 Bft) 100,00 %
02.02.2016 14:48 7,8 C 7,2 C 6,7 C 95 % 15 lf 1011,5 hPa 0,2 l/m 0 min 2 min 30 W/m 27,2 km/h (4 Bft) 100,00 %
02.02.2016 14:50 7,8 C 7,2 C 6,1 C 95 % 15 lf 1011,3 hPa 0,0 l/m 0 min 2 min 40 W/m 31,4 km/h (5 Bft) 100,00 %
02.02.2016 14:52 7,8 C 7,2 C 6,7 C 95 % 15 lf 1011,4 hPa 0,0 l/m 0 min 2 min 50 W/m 29,3 km/h (5 Bft) 100,00 %
02.02.2016 14:54 7,8 C 7,2 C 6,7 C 95 % 15 lf 1011,2 hPa 0,2 l/m 0 min 2 min 38 W/m 29,3 km/h (5 Bft) 100,00 %
02.02.2016 14:56 7,8 C 7,2 C 6,1 C 95 % 15 lf 1011,3 hPa 0,0 l/m 0 min 2 min 26 W/m 27,2 km/h (4 Bft) 100,00 %
02.02.2016 14:58 7,8 C 7,2 C 6,1 C 95 % 15 lf 1011,4 hPa 0,2 l/m 0 min 2 min 18 W/m 27,2 km/h (4 Bft) 97,83 %
02.02.2016 15:00 7,8 C 7,2 C 6,1 C 95 % 15 lf 1011,5 hPa 0,0 l/m 0 min 2 min 12 W/m 31,4 km/h (5 Bft) 97,87 %
02.02.2016 15:02 7,8 C 7,2 C 6,1 C 95 % 15 lf 1011,5 hPa 0,0 l/m 0 min 2 min 11 W/m 23,0 km/h (4 Bft) 95,74 %
02.02.2016 15:04 7,8 C 7,2 C 6,1 C 95 % 15 lf 1011,6 hPa 0,0 l/m 0 min 2 min 11 W/m 20,9 km/h (4 Bft) 100,00 %
02.02.2016 15:06 7,8 C 7,2 C 6,1 C 95 % 15 lf 1011,5 hPa 0,2 l/m 0 min 2 min 12 W/m 23,0 km/h (4 Bft) 100,00 %
02.02.2016 15:08 7,8 C 7,2 C 6,1 C 96 % 15 lf 1011,6 hPa 0,2 l/m 0 min 2 min 11 W/m 29,3 km/h (5 Bft) 100,00 %
02.02.2016 15:10 7,8 C 7,2 C 6,1 C 96 % 15 lf 1011,6 hPa 0,0 l/m 0 min 2 min 12 W/m 25,1 km/h (4 Bft) 97,83 %
02.02.2016 15:12 7,8 C 7,2 C 6,1 C 96 % 15 lf 1011,6 hPa 0,2 l/m 0 min 2 min 17 W/m 27,2 km/h (4 Bft) 97,87 %
02.02.2016 15:14 7,7 C 7,2 C 6,1 C 96 % 15 lf 1011,4 hPa 0,2 l/m 0 min 2 min 15 W/m 29,3 km/h (5 Bft) 100,00 %
02.02.2016 15:16 7,7 C 7,2 C 6,1 C 96 % 15 lf 1011,2 hPa 0,0 l/m 0 min 2 min 17 W/m 23,0 km/h (4 Bft) 100,00 %
02.02.2016 15:18 7,7 C 7,2 C 6,1 C 96 % 15 lf 1011,2 hPa 0,2 l/m 0 min 2 min 19 W/m 25,1 km/h (4 Bft) 100,00 %
02.02.2016 15:20 7,7 C 7,2 C 6,1 C 96 % 15 lf 1011,2 hPa 0,2 l/m 0 min 2 min 18 W/m 29,3 km/h (5 Bft) 95,74 %
02.02.2016 15:22 7,7 C 7,2 C 6,1 C 96 % 15 lf 1011,3 hPa 0,0 l/m 0 min 2 min 19 W/m 16,7 km/h (3 Bft) 100,00 %
02.02.2016 15:24 7,7 C 7,2 C 6,1 C 96 % 15 lf 1011,2 hPa 0,0 l/m 0 min 2 min 22 W/m 20,9 km/h (4 Bft) 95,74 %
02.02.2016 15:26 7,7 C 7,2 C 6,1 C 96 % 15 lf 1011,2 hPa 0,2 l/m 0 min 2 min 25 W/m 27,2 km/h (4 Bft) 97,87 %
02.02.2016 15:28 7,7 C 7,2 C 6,1 C 96 % 15 lf 1011,3 hPa 0,0 l/m 0 min 2 min 25 W/m 25,1 km/h (4 Bft) 97,87 %
02.02.2016 15:30 7,7 C 7,2 C 6,1 C 96 % 15 lf 1011,4 hPa 0,2 l/m 0 min 2 min 21 W/m 29,3 km/h (5 Bft) 97,87 %
02.02.2016 15:32 7,7 C 7,2 C 6,1 C 96 % 15 lf 1011,4 hPa 0,2 l/m 0 min 2 min 19 W/m 23,0 km/h (4 Bft) 93,48 %
02.02.2016 15:34 7,7 C 7,2 C 6,1 C 96 % 15 lf 1011,4 hPa 0,2 l/m 0 min 2 min 22 W/m 25,1 km/h (4 Bft) 97,87 %
02.02.2016 15:36 7,7 C 7,2 C 6,1 C 96 % 15 lf 1011,4 hPa 0,2 l/m 0 min 2 min 23 W/m 20,9 km/h (4 Bft) 97,87 %
02.02.2016 15:38 7,7 C 7,2 C 6,1 C 96 % 15 lf 1011,5 hPa 0,0 l/m 0 min 2 min 22 W/m 29,3 km/h (5 Bft) 91,49 %
02.02.2016 15:40 7,6 C 7,2 C 6,1 C 96 % 15 lf 1011,5 hPa 0,2 l/m 0 min 2 min 19 W/m 31,4 km/h (5 Bft) 93,62 %
02.02.2016 15:42 7,6 C 7,2 C 6,1 C 96 % 15 lf 1011,5 hPa 0,0 l/m 0 min 2 min 16 W/m 27,2 km/h (4 Bft) 97,87 %
02.02.2016 15:44 7,6 C 7,2 C 6,1 C 96 % 15 lf 1011,6 hPa 0,0 l/m 0 min 2 min 12 W/m 33,5 km/h (5 Bft) 95,65 %
02.02.2016 15:46 7,6 C 7,2 C 6,1 C 96 % 15 lf 1011,6 hPa 0,2 l/m 0 min 2 min 12 W/m 29,3 km/h (5 Bft) 97,87 %
02.02.2016 15:48 7,6 C 7,2 C 6,1 C 96 % 15 lf 1011,6 hPa 0,0 l/m 0 min 2 min 10 W/m 33,5 km/h (5 Bft) 91,49 %
02.02.2016 15:50 7,6 C 7,2 C 6,1 C 96 % 15 lf 1011,7 hPa 0,2 l/m 0 min 2 min 9 W/m 27,2 km/h (4 Bft) 95,74 %
02.02.2016 15:52 7,6 C 7,2 C 6,1 C 96 % 15 lf 1011,6 hPa 0,2 l/m 0 min 2 min 10 W/m 25,1 km/h (4 Bft) 95,74 %
02.02.2016 15:54 7,6 C 7,2 C 6,1 C 96 % 15 lf 1011,6 hPa 0,4 l/m 0 min 2 min 11 W/m 23,0 km/h (4 Bft) 89,36 %
02.02.2016 15:56 7,6 C 7,2 C 6,1 C 96 % 15 lf 1011,6 hPa 0,2 l/m 0 min 2 min 12 W/m 27,2 km/h (4 Bft) 91,30 %
02.02.2016 15:58 7,6 C 7,2 C 6,1 C 96 % 15 lf 1011,6 hPa 0,2 l/m 0 min 2 min 12 W/m 25,1 km/h (4 Bft) 91,49 %
02.02.2016 16:00 7,6 C 7,2 C 6,1 C 96 % 15 lf 1011,4 hPa 0,0 l/m 0 min 2 min 10 W/m 29,3 km/h (5 Bft) 87,23 %
02.02.2016 16:02 7,5 C 7,2 C 6,1 C 96 % 15 lf 1011,5 hPa 0,2 l/m 0 min 2 min 7 W/m 29,3 km/h (5 Bft) 89,36 %
02.02.2016 16:04 7,5 C 7,2 C 6,1 C 96 % 15 lf 1011,5 hPa 0,2 l/m 0 min 2 min 8 W/m 25,1 km/h (4 Bft) 89,36 %
02.02.2016 16:06 7,4 C 6,7 C 5,6 C 96 % 15 lf 1011,5 hPa 0,0 l/m 0 min 2 min 9 W/m 31,4 km/h (5 Bft) 85,11 %
02.02.2016 16:08 7,4 C 6,7 C 5,6 C 96 % 15 lf 1011,5 hPa 0,2 l/m 0 min 2 min 12 W/m 25,1 km/h (4 Bft) 89,13 %
02.02.2016 16:10 7,4 C 6,7 C 6,1 C 96 % 15 lf 1011,5 hPa 0,0 l/m 0 min 2 min 21 W/m 27,2 km/h (4 Bft) 89,36 %
02.02.2016 16:12 7,3 C 7,2 C 6,1 C 96 % 15 lf 1011,6 hPa 0,0 l/m 0 min 2 min 19 W/m 27,2 km/h (4 Bft) 89,36 %
02.02.2016 16:14 7,3 C 7,2 C 6,1 C 96 % 15 lf 1011,5 hPa 0,0 l/m 0 min 2 min 18 W/m 46,0 km/h (6 Bft) 91,49 %
02.02.2016 16:16 7,3 C 7,2 C 6,1 C 96 % 15 lf 1011,6 hPa 0,0 l/m 0 min 2 min 15 W/m 29,3 km/h (5 Bft) 91,49 %
02.02.2016 16:18 7,3 C 7,2 C 6,1 C 96 % 15 lf 1011,6 hPa 0,0 l/m 0 min 2 min 8 W/m 23,0 km/h (4 Bft) 94,29 %
02.02.2016 16:20 7,3 C 7,2 C 6,1 C 96 % 15 lf 1011,7 hPa 0,0 l/m 0 min 2 min 9 W/m 23,0 km/h (4 Bft) 88,14 %
02.02.2016 16:22 7,3 C 7,2 C 6,1 C 96 % 15 lf 1011,6 hPa 0,0 l/m 0 min 2 min 10 W/m 29,3 km/h (5 Bft) 93,62 %
02.02.2016 16:24 7,3 C 7,2 C 6,1 C 96 % 15 lf 1011,7 hPa 0,0 l/m 0 min 2 min 12 W/m 23,0 km/h (4 Bft) 95,65 %
02.02.2016 16:26 7,4 C 7,2 C 6,1 C 96 % 15 lf 1011,8 hPa 0,0 l/m 0 min 2 min 11 W/m 29,3 km/h (5 Bft) 95,74 %
02.02.2016 16:28 7,4 C 7,2 C 6,1 C 96 % 15 lf 1011,7 hPa 0,0 l/m 0 min 2 min 11 W/m 20,9 km/h (4 Bft) 95,74 %
02.02.2016 16:30 7,4 C 7,2 C 6,1 C 96 % 15 lf 1011,8 hPa 0,0 l/m 0 min 0 min 11 W/m 18,8 km/h (3 Bft) 93,62 %
02.02.2016 16:32 7,4 C 7,2 C 6,1 C 96 % 15 lf 1011,7 hPa 0,0 l/m 0 min 0 min 11 W/m 23,0 km/h (4 Bft) 97,87 %
02.02.2016 16:34 7,4 C 7,2 C 6,1 C 96 % 15 lf 1011,7 hPa 0,0 l/m 0 min 0 min 11 W/m 16,7 km/h (3 Bft) 93,62 %
02.02.2016 16:36 7,4 C 7,2 C 6,1 C 96 % 15 lf 1011,8 hPa 0,0 l/m 0 min 0 min 10 W/m 27,2 km/h (4 Bft) 95,65 %
02.02.2016 16:38 7,5 C 7,2 C 6,1 C 96 % 15 lf 1011,8 hPa 0,2 l/m 0 min 0 min 8 W/m 35,6 km/h (5 Bft) 91,49 %
02.02.2016 16:40 7,5 C 7,2 C 6,1 C 96 % 15 lf 1011,7 hPa 0,0 l/m 0 min 0 min 11 W/m 20,9 km/h (4 Bft) 95,74 %
02.02.2016 16:42 7,5 C 7,2 C 6,1 C 96 % 15 lf 1011,7 hPa 0,0 l/m 0 min 0 min 15 W/m 20,9 km/h (4 Bft) 97,87 %
02.02.2016 16:44 7,5 C 7,2 C 6,1 C 97 % 14 lf 1011,6 hPa 0,0 l/m 0 min 2 min 16 W/m 29,3 km/h (5 Bft) 95,74 %
02.02.2016 16:46 7,5 C 7,2 C 6,1 C 97 % 14 lf 1011,6 hPa 0,0 l/m 0 min 0 min 17 W/m 25,1 km/h (4 Bft) 95,74 %
02.02.2016 16:48 7,5 C 7,2 C 6,1 C 97 % 14 lf 1011,5 hPa 0,0 l/m 0 min 0 min 18 W/m 18,8 km/h (3 Bft) 93,48 %
02.02.2016 16:50 7,5 C 7,2 C 6,1 C 97 % 14 lf 1011,5 hPa 0,0 l/m 0 min 0 min 21 W/m 23,0 km/h (4 Bft) 95,74 %
02.02.2016 16:52 7,5 C 7,2 C 6,1 C 97 % 14 lf 1011,5 hPa 0,0 l/m 0 min 0 min 18 W/m 25,1 km/h (4 Bft) 97,87 %
02.02.2016 16:54 7,5 C 7,2 C 6,1 C 97 % 14 lf 1011,6 hPa 0,0 l/m 0 min 0 min 16 W/m 29,3 km/h (5 Bft) 97,87 %
02.02.2016 16:56 7,5 C 7,2 C 6,1 C 97 % 14 lf 1011,5 hPa 0,0 l/m 0 min 0 min 15 W/m 33,5 km/h (5 Bft) 95,74 %
02.02.2016 16:58 7,5 C 7,2 C 6,1 C 96 % 14 lf 1011,6 hPa 0,0 l/m 0 min 0 min 16 W/m 25,1 km/h (4 Bft) 97,87 %
02.02.2016 17:00 7,5 C 7,2 C 6,1 C 96 % 14 lf 1011,5 hPa 0,0 l/m 0 min 0 min 18 W/m 27,2 km/h (4 Bft) 97,83 %
02.02.2016 17:02 7,5 C 7,2 C 6,1 C 97 % 13 lf 1011,6 hPa 0,0 l/m 0 min 0 min 19 W/m 29,3 km/h (5 Bft) 95,74 %
02.02.2016 17:04 7,5 C 7,2 C 6,1 C 96 % 13 lf 1011,6 hPa 0,0 l/m 0 min 0 min 18 W/m 23,0 km/h (4 Bft) 100,00 %
02.02.2016 17:06 7,5 C 7,2 C 6,1 C 97 % 13 lf 1011,6 hPa 0,0 l/m 0 min 0 min 12 W/m 29,3 km/h (5 Bft) 97,87 %
02.02.2016 17:08 7,5 C 7,2 C 6,1 C 97 % 13 lf 1011,6 hPa 0,0 l/m 0 min 0 min 11 W/m 27,2 km/h (4 Bft) 100,00 %
02.02.2016 17:10 7,5 C 7,2 C 6,1 C 97 % 13 lf 1011,6 hPa 0,0 l/m 0 min 0 min 11 W/m 23,0 km/h (4 Bft) 100,00 %
02.02.2016 17:12 7,5 C 7,2 C 6,1 C 97 % 13 lf 1011,6 hPa 0,0 l/m 0 min 0 min 10 W/m 25,1 km/h (4 Bft) 97,83 %
02.02.2016 17:14 7,5 C 7,2 C 6,1 C 97 % 13 lf 1011,5 hPa 0,0 l/m 0 min 0 min 9 W/m 27,2 km/h (4 Bft) 97,87 %
02.02.2016 17:16 7,5 C 7,2 C 6,1 C 97 % 13 lf 1011,5 hPa 0,0 l/m 0 min 0 min 10 W/m 20,9 km/h (4 Bft) 97,87 %
02.02.2016 17:18 7,5 C 7,2 C 6,1 C 96 % 13 lf 1011,5 hPa 0,0 l/m 0 min 0 min 10 W/m 23,0 km/h (4 Bft) 100,00 %
02.02.2016 17:20 7,4 C 7,2 C 6,1 C 96 % 13 lf 1011,5 hPa 0,0 l/m 0 min 0 min 8 W/m 29,3 km/h (5 Bft) 97,87 %
02.02.2016 17:22 7,4 C 7,2 C 6,1 C 96 % 13 lf 1011,6 hPa 0,0 l/m 0 min 0 min 7 W/m 31,4 km/h (5 Bft) 100,00 %
02.02.2016 17:24 7,4 C 7,2 C 6,1 C 96 % 13 lf 1011,7 hPa 0,0 l/m 0 min 0 min 7 W/m 46,0 km/h (6 Bft) 100,00 %
02.02.2016 17:26 7,4 C 7,2 C 5,6 C 96 % 13 lf 1011,8 hPa 0,0 l/m 0 min 0 min 5 W/m 43,9 km/h (6 Bft) 97,87 %
02.02.2016 17:28 7,4 C 7,2 C 5,6 C 96 % 13 lf 1012,0 hPa 0,0 l/m 0 min 0 min 5 W/m 41,8 km/h (6 Bft) 95,74 %
02.02.2016 17:30 7,4 C 7,2 C 5,6 C 96 % 13 lf 1012,0 hPa 0,0 l/m 0 min 0 min 5 W/m 31,4 km/h (5 Bft) 100,00 %
02.02.2016 17:32 7,4 C 7,2 C 5,6 C 96 % 13 lf 1012,0 hPa 0,0 l/m 0 min 0 min 5 W/m 29,3 km/h (5 Bft) 97,87 %
02.02.2016 17:34 7,4 C 7,2 C 5,6 C 96 % 12 lf 1012,1 hPa 0,0 l/m 0 min 0 min 0 W/m 31,4 km/h (5 Bft) 100,00 %
02.02.2016 17:36 7,3 C 7,2 C 5,6 C 96 % 12 lf 1012,0 hPa 0,0 l/m 0 min 0 min 0 W/m 43,9 km/h (6 Bft) 97,87 %
02.02.2016 17:38 7,3 C 7,2 C 5,6 C 96 % 12 lf 1012,1 hPa 0,0 l/m 0 min 0 min 4 W/m 31,4 km/h (5 Bft) 97,87 %
02.02.2016 17:40 7,3 C 7,2 C 5,6 C 96 % 12 lf 1012,1 hPa 0,0 l/m 0 min 0 min 0 W/m 29,3 km/h (5 Bft) 100,00 %
02.02.2016 17:42 7,3 C 7,2 C 5,6 C 96 % 12 lf 1012,2 hPa 0,0 l/m 0 min 0 min 0 W/m 37,7 km/h (5 Bft) 100,00 %
02.02.2016 17:44 7,3 C 6,7 C 5,6 C 96 % 12 lf 1012,2 hPa 0,0 l/m 0 min 0 min 0 W/m 37,7 km/h (5 Bft) 93,62 %
02.02.2016 17:46 7,2 C 6,7 C 5,6 C 96 % 11 lf 1012,3 hPa 0,0 l/m 0 min 0 min 0 W/m 33,5 km/h (5 Bft) 97,83 %
02.02.2016 17:48 7,2 C 7,2 C 5,6 C 96 % 12 lf 1012,3 hPa 0,0 l/m 0 min 0 min 0 W/m 37,7 km/h (5 Bft) 97,87 %
02.02.2016 17:50 7,2 C 7,2 C 5,6 C 96 % 11 lf 1012,4 hPa 0,0 l/m 0 min 0 min 0 W/m 29,3 km/h (5 Bft) 95,74 %
02.02.2016 17:52 7,2 C 7,2 C 5,6 C 96 % 10 lf 1012,4 hPa 0,0 l/m 0 min 0 min 0 W/m 37,7 km/h (5 Bft) 95,74 %
02.02.2016 17:54 7,2 C 7,2 C 5,6 C 96 % 10 lf 1012,4 hPa 0,0 l/m 0 min 0 min 0 W/m 29,3 km/h (5 Bft) 97,87 %
02.02.2016 17:56 7,2 C 6,7 C 5,6 C 96 % 10 lf 1012,4 hPa 0,0 l/m 0 min 0 min 0 W/m 29,3 km/h (5 Bft) 95,74 %
02.02.2016 17:58 7,2 C 6,7 C 5,6 C 96 % 10 lf 1012,5 hPa 0,0 l/m 0 min 0 min 0 W/m 27,2 km/h (4 Bft) 93,48 %
02.02.2016 18:00 7,2 C 6,7 C 5,6 C 96 % 10 lf 1012,5 hPa 0,0 l/m 0 min 0 min 0 W/m 27,2 km/h (4 Bft) 95,74 %
02.02.2016 18:02 7,2 C 6,7 C 5,6 C 96 % 9 lf 1012,5 hPa 0,0 l/m 0 min 0 min 0 W/m 27,2 km/h (4 Bft) 97,87 %
02.02.2016 18:04 7,2 C 6,7 C 5,6 C 96 % 9 lf 1012,5 hPa 0,0 l/m 0 min 0 min 0 W/m 29,3 km/h (5 Bft) 97,87 %
02.02.2016 18:06 7,2 C 6,7 C 5,6 C 96 % 9 lf 1012,6 hPa 0,0 l/m 0 min 0 min 0 W/m 29,3 km/h (5 Bft) 97,87 %
02.02.2016 18:08 7,2 C 6,7 C 5,6 C 96 % 9 lf 1012,5 hPa 0,0 l/m 0 min 0 min 0 W/m 35,6 km/h (5 Bft) 97,87 %
02.02.2016 18:10 7,2 C 6,7 C 5,6 C 96 % 9 lf 1012,5 hPa 0,0 l/m 0 min 0 min 0 W/m 29,3 km/h (5 Bft) 95,65 %
02.02.2016 18:12 7,1 C 6,7 C 5,6 C 96 % 8 lf 1012,6 hPa 0,0 l/m 0 min 0 min 0 W/m 35,6 km/h (5 Bft) 95,74 %
02.02.2016 18:14 7,1 C 6,7 C 5,0 C 96 % 7 lf 1012,6 hPa 0,0 l/m 0 min 0 min 0 W/m 29,3 km/h (5 Bft) 100,00 %
02.02.2016 18:16 7,1 C 6,7 C 5,0 C 96 % 7 lf 1012,7 hPa 0,0 l/m 0 min 0 min 0 W/m 31,4 km/h (5 Bft) 97,87 %
02.02.2016 18:18 7,1 C 6,7 C 5,0 C 96 % 7 lf 1012,6 hPa 0,0 l/m 0 min 0 min 0 W/m 35,6 km/h (5 Bft) 100,00 %
02.02.2016 18:20 7,1 C 6,7 C 5,0 C 96 % 6 lf 1012,7 hPa 0,0 l/m 0 min 0 min 0 W/m 33,5 km/h (5 Bft) 100,00 %
02.02.2016 18:22 7,1 C 6,7 C 5,0 C 96 % 6 lf 1012,7 hPa 0,0 l/m 0 min 0 min 0 W/m 31,4 km/h (5 Bft) 97,83 %
02.02.2016 18:24 7,0 C 6,7 C 5,0 C 95 % 5 lf 1012,8 hPa 0,0 l/m 0 min 0 min 0 W/m 37,7 km/h (5 Bft) 95,74 %
02.02.2016 18:26 7,0 C 6,7 C 5,0 C 95 % 4 lf 1012,7 hPa 0,0 l/m 0 min 0 min 0 W/m 27,2 km/h (4 Bft) 95,74 %
02.02.2016 18:28 7,0 C 6,7 C 5,0 C 95 % 4 lf 1012,8 hPa 0,0 l/m 0 min 0 min 0 W/m 39,7 km/h (6 Bft) 93,62 %
02.02.2016 18:30 7,0 C 6,7 C 5,0 C 95 % 4 lf 1012,7 hPa 0,0 l/m 0 min 0 min 0 W/m 35,6 km/h (5 Bft) 93,62 %
02.02.2016 18:32 7,0 C 6,7 C 5,0 C 95 % 4 lf 1012,7 hPa 0,0 l/m 0 min 0 min 0 W/m 39,7 km/h (6 Bft) 93,62 %
02.02.2016 18:34 7,0 C 6,7 C 5,0 C 95 % 4 lf 1012,7 hPa 0,0 l/m 0 min 0 min 0 W/m 29,3 km/h (5 Bft) 93,48 %
02.02.2016 18:36 7,0 C 6,7 C 5,0 C 95 % 4 lf 1012,7 hPa 0,0 l/m 0 min 0 min 0 W/m 39,7 km/h (6 Bft) 95,74 %
02.02.2016 18:38 7,0 C 6,7 C 5,0 C 95 % 4 lf 1012,8 hPa 0,0 l/m 0 min 0 min 0 W/m 33,5 km/h (5 Bft) 93,62 %
02.02.2016 18:40 7,0 C 6,7 C 5,0 C 94 % 4 lf 1012,8 hPa 0,0 l/m 0 min 0 min 0 W/m 27,2 km/h (4 Bft) 95,74 %
02.02.2016 18:42 7,0 C 7,2 C 5,0 C 94 % 3 lf 1012,7 hPa 0,0 l/m 0 min 0 min 0 W/m 37,7 km/h (5 Bft) 95,74 %
02.02.2016 18:44 7,0 C 6,7 C 5,0 C 94 % 3 lf 1012,8 hPa 0,0 l/m 0 min 0 min 0 W/m 25,1 km/h (4 Bft) 93,48 %
02.02.2016 18:46 7,0 C 6,7 C 5,0 C 94 % 4 lf 1012,8 hPa 0,0 l/m 0 min 0 min 0 W/m 25,1 km/h (4 Bft) 93,62 %
02.02.2016 18:48 7,0 C 6,7 C 5,0 C 94 % 3 lf 1012,9 hPa 0,0 l/m 0 min 0 min 0 W/m 33,5 km/h (5 Bft) 93,62 %
02.02.2016 18:50 6,9 C 6,7 C 5,0 C 94 % 3 lf 1013,0 hPa 0,0 l/m 0 min 0 min 0 W/m 29,3 km/h (5 Bft) 95,74 %
02.02.2016 18:52 6,9 C 6,7 C 5,0 C 94 % 3 lf 1012,9 hPa 0,0 l/m 0 min 0 min 0 W/m 25,1 km/h (4 Bft) 95,74 %
02.02.2016 18:54 6,9 C 6,7 C 5,0 C 94 % 3 lf 1013,0 hPa 0,0 l/m 0 min 0 min 0 W/m 27,2 km/h (4 Bft) 93,62 %
02.02.2016 18:56 6,9 C 6,7 C 5,0 C 94 % 3 lf 1013,0 hPa 0,0 l/m 0 min 0 min 0 W/m 25,1 km/h (4 Bft) 93,48 %
02.02.2016 18:58 6,9 C 6,7 C 5,0 C 94 % 3 lf 1013,0 hPa 0,0 l/m 0 min 0 min 0 W/m 29,3 km/h (5 Bft) 91,49 %
02.02.2016 19:00 6,8 C 6,7 C 5,0 C 94 % 3 lf 1013,0 hPa 0,0 l/m 0 min 0 min 0 W/m 31,4 km/h (5 Bft) 93,62 %
02.02.2016 19:02 6,8 C 6,7 C 5,0 C 94 % 3 lf 1013,0 hPa 0,0 l/m 0 min 0 min 0 W/m 29,3 km/h (5 Bft) 95,74 %
02.02.2016 19:04 6,8 C 6,7 C 5,0 C 94 % 3 lf 1012,9 hPa 0,0 l/m 0 min 0 min 0 W/m 29,3 km/h (5 Bft) 95,74 %
02.02.2016 19:06 6,8 C 6,7 C 5,0 C 94 % 3 lf 1012,9 hPa 0,0 l/m 0 min 0 min 0 W/m 31,4 km/h (5 Bft) 93,62 %
02.02.2016 19:08 6,8 C 6,7 C 5,0 C 94 % 3 lf 1013,0 hPa 0,0 l/m 0 min 0 min 0 W/m 29,3 km/h (5 Bft) 95,65 %
02.02.2016 19:10 6,8 C 6,7 C 5,0 C 93 % 3 lf 1013,0 hPa 0,0 l/m 0 min 0 min 0 W/m 27,2 km/h (4 Bft) 93,62 %
02.02.2016 19:12 6,8 C 6,7 C 5,0 C 93 % 3 lf 1013,1 hPa 0,0 l/m 0 min 0 min 0 W/m 27,2 km/h (4 Bft) 95,74 %
02.02.2016 19:14 6,8 C 6,7 C 5,0 C 93 % 3 lf 1013,2 hPa 0,0 l/m 0 min 0 min 0 W/m 31,4 km/h (5 Bft) 95,74 %
02.02.2016 19:16 6,7 C 6,7 C 5,0 C 93 % 3 lf 1013,2 hPa 0,0 l/m 0 min 0 min 0 W/m 25,1 km/h (4 Bft) 93,62 %
02.02.2016 19:18 6,7 C 6,7 C 5,0 C 93 % 3 lf 1013,1 hPa 0,0 l/m 0 min 0 min 0 W/m 25,1 km/h (4 Bft) 100,00 %
02.02.2016 19:20 6,7 C 6,7 C 5,0 C 93 % 3 lf 1013,2 hPa 0,0 l/m 0 min 0 min 0 W/m 25,1 km/h (4 Bft) 97,83 %
02.02.2016 19:22 6,7 C 6,7 C 5,0 C 93 % 3 lf 1013,2 hPa 0,0 l/m 0 min 0 min 0 W/m 29,3 km/h (5 Bft) 95,74 %
02.02.2016 19:24 6,7 C 6,7 C 5,0 C 93 % 3 lf 1013,2 hPa 0,0 l/m 0 min 0 min 0 W/m 31,4 km/h (5 Bft) 95,74 %
02.02.2016 19:26 6,7 C 6,7 C 5,0 C 93 % 3 lf 1013,3 hPa 0,0 l/m 0 min 0 min 0 W/m 27,2 km/h (4 Bft) 100,00 %
02.02.2016 19:28 6,7 C 6,7 C 5,0 C 93 % 3 lf 1013,3 hPa 0,0 l/m 0 min 0 min 0 W/m 23,0 km/h (4 Bft) 95,74 %
02.02.2016 19:30 6,7 C 6,7 C 5,0 C 93 % 3 lf 1013,2 hPa 0,0 l/m 0 min 0 min 0 W/m 29,3 km/h (5 Bft) 93,62 %
02.02.2016 19:32 6,7 C 6,7 C 5,0 C 93 % 3 lf 1013,2 hPa 0,0 l/m 0 min 0 min 0 W/m 29,3 km/h (5 Bft) 95,65 %
02.02.2016 19:34 6,7 C 6,7 C 5,0 C 93 % 3 lf 1013,2 hPa 0,0 l/m 0 min 0 min 0 W/m 27,2 km/h (4 Bft) 95,74 %
02.02.2016 19:36 6,7 C 6,7 C 5,0 C 93 % 3 lf 1013,1 hPa 0,0 l/m 0 min 0 min 0 W/m 31,4 km/h (5 Bft) 97,87 %
02.02.2016 19:38 6,7 C 6,7 C 5,0 C 93 % 2 lf 1013,2 hPa 0,0 l/m 0 min 0 min 0 W/m 25,1 km/h (4 Bft) 91,49 %
02.02.2016 19:40 6,7 C 6,7 C 5,0 C 93 % 2 lf 1013,2 hPa 0,0 l/m 0 min 0 min 0 W/m 33,5 km/h (5 Bft) 97,87 %
02.02.2016 19:42 6,7 C 6,7 C 5,0 C 93 % 2 lf 1013,2 hPa 0,0 l/m 0 min 0 min 0 W/m 31,4 km/h (5 Bft) 97,87 %
02.02.2016 19:44 6,7 C 6,7 C 5,0 C 93 % 2 lf 1013,2 hPa 0,0 l/m 0 min 0 min 0 W/m 25,1 km/h (4 Bft) 95,65 %
02.02.2016 19:46 6,7 C 6,7 C 5,0 C 93 % 2 lf 1013,2 hPa 0,0 l/m 0 min 0 min 0 W/m 41,8 km/h (6 Bft) 95,74 %
02.02.2016 19:48 6,7 C 6,7 C 5,0 C 93 % 2 lf 1013,2 hPa 0,0 l/m 0 min 0 min 0 W/m 27,2 km/h (4 Bft) 97,87 %
02.02.2016 19:50 6,7 C 6,7 C 5,0 C 93 % 2 lf 1013,3 hPa 0,0 l/m 0 min 0 min 0 W/m 35,6 km/h (5 Bft) 95,74 %
02.02.2016 19:52 6,7 C 6,7 C 4,4 C 93 % 2 lf 1013,3 hPa 0,0 l/m 0 min 0 min 0 W/m 33,5 km/h (5 Bft) 95,74 %
02.02.2016 19:54 6,7 C 6,7 C 5,0 C 93 % 1 lf 1013,3 hPa 0,0 l/m 0 min 0 min 0 W/m 31,4 km/h (5 Bft) 95,74 %
02.02.2016 19:56 6,7 C 6,7 C 5,0 C 93 % 1 lf 1013,4 hPa 0,0 l/m 0 min 0 min 0 W/m 39,7 km/h (6 Bft) 97,83 %
02.02.2016 19:58 6,7 C 7,2 C 5,0 C 93 % 1 lf 1013,4 hPa 0,0 l/m 0 min 0 min 0 W/m 33,5 km/h (5 Bft) 97,87 %
02.02.2016 20:00 6,7 C 7,2 C 5,0 C 93 % 1 lf 1013,4 hPa 0,0 l/m 0 min 0 min 0 W/m 39,7 km/h (6 Bft) 97,87 %
02.02.2016 20:02 6,7 C 7,2 C 5,0 C 93 % 1 lf 1013,4 hPa 0,0 l/m 0 min 2 min 0 W/m 35,6 km/h (5 Bft) 95,74 %
02.02.2016 20:04 6,8 C 7,2 C 5,0 C 93 % 0 lf 1013,6 hPa 0,0 l/m 0 min 0 min 0 W/m 33,5 km/h (5 Bft) 95,74 %
02.02.2016 20:06 6,8 C 7,2 C 5,0 C 93 % 0 lf 1013,6 hPa 0,0 l/m 0 min 0 min 0 W/m 29,3 km/h (5 Bft) 97,83 %
02.02.2016 20:08 6,8 C 6,7 C 5,0 C 93 % 0 lf 1013,6 hPa 0,0 l/m 0 min 0 min 0 W/m 33,5 km/h (5 Bft) 97,87 %
02.02.2016 20:10 6,8 C 6,7 C 5,0 C 93 % 0 lf 1013,6 hPa 0,0 l/m 0 min 0 min 0 W/m 31,4 km/h (5 Bft) 97,87 %
02.02.2016 20:12 6,8 C 6,7 C 5,0 C 93 % 0 lf 1013,6 hPa 0,0 l/m 0 min 0 min 0 W/m 33,5 km/h (5 Bft) 95,74 %
02.02.2016 20:14 6,8 C 6,7 C 5,0 C 93 % 0 lf 1013,5 hPa 0,0 l/m 0 min 0 min 0 W/m 33,5 km/h (5 Bft) 95,74 %
02.02.2016 20:16 6,8 C 6,7 C 5,0 C 93 % 0 lf 1013,6 hPa 0,0 l/m 0 min 0 min 0 W/m 31,4 km/h (5 Bft) 97,87 %
02.02.2016 20:18 6,8 C 6,7 C 5,0 C 93 % 0 lf 1013,6 hPa 0,0 l/m 0 min 0 min 0 W/m 27,2 km/h (4 Bft) 93,48 %
02.02.2016 20:20 6,8 C 6,7 C 5,0 C 93 % 12 lf 1013,7 hPa 0,0 l/m 0 min 2 min 0 W/m 25,1 km/h (4 Bft) 95,74 %
02.02.2016 20:22 6,8 C 6,7 C 5,0 C 93 % 14 lf 1013,6 hPa 0,0 l/m 0 min 2 min 0 W/m 25,1 km/h (4 Bft) 93,62 %
02.02.2016 20:24 6,8 C 6,7 C 5,0 C 93 % 15 lf 1013,5 hPa 0,0 l/m 0 min 2 min 0 W/m 14,6 km/h (3 Bft) 97,87 %
02.02.2016 20:26 6,8 C 6,7 C 5,0 C 93 % 15 lf 1013,5 hPa 0,0 l/m 0 min 2 min 0 W/m 14,6 km/h (3 Bft) 97,87 %
02.02.2016 20:28 6,8 C 6,7 C 5,0 C 93 % 15 lf 1013,6 hPa 0,0 l/m 0 min 2 min 0 W/m 16,7 km/h (3 Bft) 97,87 %
02.02.2016 20:30 6,8 C 6,7 C 5,0 C 93 % 15 lf 1013,6 hPa 0,0 l/m 0 min 2 min 0 W/m 14,6 km/h (3 Bft) 95,65 %
02.02.2016 20:32 6,8 C 6,7 C 5,0 C 93 % 15 lf 1013,6 hPa 0,0 l/m 0 min 2 min 0 W/m 23,0 km/h (4 Bft) 97,87 %
02.02.2016 20:34 6,8 C 6,7 C 5,0 C 93 % 15 lf 1013,7 hPa 0,0 l/m 0 min 2 min 0 W/m 20,9 km/h (4 Bft) 97,87 %
02.02.2016 20:36 6,9 C 6,7 C 5,0 C 93 % 15 lf 1013,5 hPa 0,0 l/m 0 min 2 min 0 W/m 18,8 km/h (3 Bft) 95,74 %
02.02.2016 20:38 6,8 C 6,7 C 5,0 C 93 % 15 lf 1013,7 hPa 0,0 l/m 0 min 2 min 0 W/m 25,1 km/h (4 Bft) 97,87 %
02.02.2016 20:40 6,8 C 6,7 C 5,0 C 93 % 15 lf 1013,8 hPa 0,0 l/m 0 min 2 min 0 W/m 27,2 km/h (4 Bft) 97,87 %
02.02.2016 20:42 6,8 C 6,1 C 5,0 C 93 % 15 lf 1013,9 hPa 0,2 l/m 0 min 2 min 0 W/m 41,8 km/h (6 Bft) 95,65 %
02.02.2016 20:44 6,8 C 6,1 C 5,0 C 93 % 15 lf 1014,1 hPa 0,2 l/m 0 min 2 min 0 W/m 31,4 km/h (5 Bft) 95,74 %
02.02.2016 20:46 6,8 C 6,1 C 5,0 C 93 % 15 lf 1014,0 hPa 0,2 l/m 0 min 2 min 0 W/m 35,6 km/h (5 Bft) 93,62 %
02.02.2016 20:48 6,7 C 5,6 C 4,4 C 93 % 15 lf 1013,9 hPa 0,2 l/m 0 min 2 min 0 W/m 31,4 km/h (5 Bft) 97,87 %
02.02.2016 20:50 6,6 C 5,6 C 4,4 C 93 % 15 lf 1013,9 hPa 0,2 l/m 0 min 2 min 0 W/m 27,2 km/h (4 Bft) 97,87 %
02.02.2016 20:52 6,4 C 5,0 C 3,9 C 93 % 15 lf 1014,1 hPa 0,4 l/m 0 min 2 min 0 W/m 48,1 km/h (6 Bft) 95,74 %
02.02.2016 20:54 6,2 C 4,4 C 2,2 C 93 % 15 lf 1013,9 hPa 0,2 l/m 0 min 2 min 0 W/m 48,1 km/h (6 Bft) 95,65 %
02.02.2016 20:56 6,0 C 4,4 C 2,2 C 92 % 15 lf 1014,0 hPa 0,4 l/m 0 min 2 min 0 W/m 35,6 km/h (5 Bft) 95,74 %
02.02.2016 20:58 5,8 C 3,9 C 2,2 C 92 % 15 lf 1014,0 hPa 0,2 l/m 0 min 2 min 0 W/m 27,2 km/h (4 Bft) 97,87 %
02.02.2016 21:00 5,5 C 3,9 C 1,7 C 91 % 15 lf 1014,0 hPa 0,4 l/m 0 min 2 min 0 W/m 37,7 km/h (5 Bft) 97,87 %
02.02.2016 21:02 5,3 C 3,9 C 1,7 C 91 % 15 lf 1014,0 hPa 0,2 l/m 0 min 2 min 0 W/m 41,8 km/h (6 Bft) 93,62 %
02.02.2016 21:04 5,1 C 3,9 C 2,2 C 91 % 15 lf 1013,9 hPa 0,2 l/m 0 min 2 min 0 W/m 33,5 km/h (5 Bft) 95,74 %
02.02.2016 21:06 5,1 C 4,4 C 2,2 C 91 % 15 lf 1013,9 hPa 0,0 l/m 0 min 2 min 0 W/m 39,7 km/h (6 Bft) 97,83 %
02.02.2016 21:08 5,0 C 4,4 C 2,2 C 91 % 15 lf 1014,0 hPa 0,0 l/m 0 min 0 min 0 W/m 35,6 km/h (5 Bft) 95,74 %
02.02.2016 21:10 5,1 C 5,0 C 2,8 C 92 % 15 lf 1014,0 hPa 0,2 l/m 0 min 0 min 0 W/m 29,3 km/h (5 Bft) 91,49 %
02.02.2016 21:12 5,1 C 5,0 C 3,3 C 92 % 15 lf 1014,0 hPa 0,0 l/m 0 min 0 min 0 W/m 29,3 km/h (5 Bft) 91,49 %
02.02.2016 21:14 5,2 C 5,0 C 3,3 C 93 % 15 lf 1014,0 hPa 0,0 l/m 0 min 0 min 0 W/m 29,3 km/h (5 Bft) 95,74 %
02.02.2016 21:16 5,3 C 5,0 C 3,3 C 93 % 15 lf 1014,0 hPa 0,0 l/m 0 min 0 min 0 W/m 23,0 km/h (4 Bft) 93,48 %
02.02.2016 21:18 5,3 C 5,0 C 3,3 C 93 % 15 lf 1014,0 hPa 0,0 l/m 0 min 0 min 0 W/m 29,3 km/h (5 Bft) 93,62 %
02.02.2016 21:20 5,4 C 5,0 C 3,3 C 93 % 15 lf 1014,1 hPa 0,2 l/m 0 min 0 min 0 W/m 29,3 km/h (5 Bft) 93,62 %
02.02.2016 21:22 5,4 C 5,0 C 3,3 C 93 % 15 lf 1014,2 hPa 0,0 l/m 0 min 0 min 0 W/m 20,9 km/h (4 Bft) 93,62 %
02.02.2016 21:24 5,4 C 5,0 C 3,3 C 94 % 15 lf 1014,2 hPa 0,0 l/m 0 min 0 min 0 W/m 18,8 km/h (3 Bft) 95,74 %
02.02.2016 21:26 5,4 C 5,0 C 3,3 C 94 % 15 lf 1014,1 hPa 0,0 l/m 0 min 0 min 0 W/m 29,3 km/h (5 Bft) 93,62 %
02.02.2016 21:28 5,5 C 5,0 C 3,3 C 94 % 15 lf 1014,2 hPa 0,0 l/m 0 min 0 min 0 W/m 25,1 km/h (4 Bft) 91,30 %
02.02.2016 21:30 5,5 C 5,0 C 3,3 C 94 % 15 lf 1014,2 hPa 0,0 l/m 0 min 0 min 0 W/m 27,2 km/h (4 Bft) 93,62 %
02.02.2016 21:32 5,6 C 5,6 C 3,3 C 94 % 15 lf 1014,2 hPa 0,0 l/m 0 min 0 min 0 W/m 29,3 km/h (5 Bft) 91,49 %
02.02.2016 21:34 5,6 C 5,6 C 3,3 C 94 % 15 lf 1014,3 hPa 0,0 l/m 0 min 0 min 0 W/m 35,6 km/h (5 Bft) 93,62 %
02.02.2016 21:36 5,6 C 5,6 C 3,9 C 94 % 15 lf 1014,2 hPa 0,0 l/m 0 min 0 min 0 W/m 33,5 km/h (5 Bft) 91,49 %
02.02.2016 21:38 5,6 C 5,6 C 3,9 C 94 % 15 lf 1014,2 hPa 0,0 l/m 0 min 0 min 0 W/m 35,6 km/h (5 Bft) 89,36 %
02.02.2016 21:40 5,7 C 5,6 C 3,9 C 94 % 15 lf 1014,3 hPa 0,0 l/m 0 min 0 min 0 W/m 31,4 km/h (5 Bft) 91,30 %
02.02.2016 21:42 5,7 C 5,6 C 3,9 C 94 % 15 lf 1014,3 hPa 0,2 l/m 0 min 0 min 0 W/m 29,3 km/h (5 Bft) 93,62 %
02.02.2016 21:44 5,7 C 5,6 C 3,9 C 95 % 15 lf 1014,4 hPa 0,0 l/m 0 min 0 min 0 W/m 31,4 km/h (5 Bft) 91,49 %
02.02.2016 21:46 5,7 C 5,6 C 3,9 C 95 % 15 lf 1014,4 hPa 0,0 l/m 0 min 0 min 0 W/m 27,2 km/h (4 Bft) 93,62 %
02.02.2016 21:48 5,7 C 5,6 C 3,9 C 95 % 15 lf 1014,4 hPa 0,0 l/m 0 min 0 min 0 W/m 31,4 km/h (5 Bft) 95,74 %
02.02.2016 21:50 5,8 C 5,6 C 3,9 C 95 % 15 lf 1014,4 hPa 0,0 l/m 0 min 0 min 0 W/m 31,4 km/h (5 Bft) 95,74 %
02.02.2016 21:52 5,8 C 5,6 C 3,9 C 95 % 15 lf 1014,4 hPa 0,0 l/m 0 min 0 min 0 W/m 31,4 km/h (5 Bft) 97,83 %
02.02.2016 21:54 5,8 C 5,6 C 3,9 C 95 % 15 lf 1014,4 hPa 0,0 l/m 0 min 0 min 0 W/m 31,4 km/h (5 Bft) 95,74 %
02.02.2016 21:56 5,8 C 5,6 C 3,9 C 95 % 15 lf 1014,4 hPa 0,0 l/m 0 min 0 min 0 W/m 27,2 km/h (4 Bft) 97,87 %
02.02.2016 21:58 5,8 C 5,6 C 3,9 C 95 % 15 lf 1014,4 hPa 0,0 l/m 0 min 0 min 0 W/m 33,5 km/h (5 Bft) 93,62 %
02.02.2016 22:00 5,8 C 5,6 C 3,9 C 95 % 15 lf 1014,4 hPa 0,0 l/m 0 min 0 min 0 W/m 29,3 km/h (5 Bft) 97,87 %
02.02.2016 22:02 5,8 C 5,6 C 3,9 C 95 % 15 lf 1014,5 hPa 0,0 l/m 0 min 0 min 0 W/m 33,5 km/h (5 Bft) 95,74 %
02.02.2016 22:04 5,8 C 5,6 C 3,9 C 95 % 15 lf 1014,4 hPa 0,0 l/m 0 min 0 min 0 W/m 27,2 km/h (4 Bft) 95,65 %
02.02.2016 22:06 5,8 C 5,6 C 3,9 C 95 % 15 lf 1014,5 hPa 0,2 l/m 0 min 0 min 0 W/m 33,5 km/h (5 Bft) 91,49 %
02.02.2016 22:08 5,8 C 5,6 C 3,9 C 95 % 15 lf 1014,5 hPa 0,0 l/m 0 min 0 min 0 W/m 27,2 km/h (4 Bft) 97,87 %
02.02.2016 22:10 5,8 C 5,6 C 3,9 C 95 % 15 lf 1014,5 hPa 0,0 l/m 0 min 0 min 0 W/m 33,5 km/h (5 Bft) 97,87 %
02.02.2016 22:12 5,8 C 5,6 C 3,9 C 95 % 15 lf 1014,5 hPa 0,0 l/m 0 min 0 min 0 W/m 39,7 km/h (6 Bft) 95,74 %
02.02.2016 22:14 5,8 C 5,6 C 3,9 C 95 % 15 lf 1014,5 hPa 0,0 l/m 0 min 0 min 0 W/m 31,4 km/h (5 Bft) 95,74 %
02.02.2016 22:16 5,8 C 5,6 C 3,9 C 94 % 15 lf 1014,5 hPa 0,0 l/m 0 min 0 min 0 W/m 31,4 km/h (5 Bft) 95,65 %
02.02.2016 22:18 5,8 C 5,6 C 3,9 C 94 % 15 lf 1014,5 hPa 0,0 l/m 0 min 0 min 0 W/m 31,4 km/h (5 Bft) 97,87 %
02.02.2016 22:20 5,8 C 5,6 C 3,9 C 94 % 15 lf 1014,6 hPa 0,0 l/m 0 min 0 min 0 W/m 33,5 km/h (5 Bft) 97,87 %
02.02.2016 22:22 5,8 C 5,6 C 3,9 C 94 % 15 lf 1014,6 hPa 0,0 l/m 0 min 0 min 0 W/m 29,3 km/h (5 Bft) 95,74 %
02.02.2016 22:24 5,8 C 5,6 C 3,9 C 94 % 15 lf 1014,7 hPa 0,0 l/m 0 min 0 min 0 W/m 35,6 km/h (5 Bft) 100,00 %
02.02.2016 22:26 5,8 C 5,6 C 3,9 C 94 % 15 lf 1014,6 hPa 0,0 l/m 0 min 0 min 0 W/m 43,9 km/h (6 Bft) 97,83 %
02.02.2016 22:28 5,8 C 5,6 C 3,9 C 94 % 15 lf 1014,7 hPa 0,0 l/m 0 min 0 min 0 W/m 31,4 km/h (5 Bft) 97,87 %
02.02.2016 22:30 5,8 C 5,6 C 3,9 C 94 % 15 lf 1014,7 hPa 0,0 l/m 0 min 0 min 0 W/m 33,5 km/h (5 Bft) 95,74 %
02.02.2016 22:32 5,8 C 5,6 C 3,9 C 94 % 15 lf 1014,7 hPa 0,0 l/m 0 min 0 min 0 W/m 31,4 km/h (5 Bft) 100,00 %
02.02.2016 22:34 5,8 C 5,6 C 3,9 C 94 % 15 lf 1014,7 hPa 0,0 l/m 0 min 0 min 0 W/m 27,2 km/h (4 Bft) 100,00 %
02.02.2016 22:36 5,8 C 5,6 C 3,9 C 94 % 15 lf 1014,7 hPa 0,0 l/m 0 min 0 min 0 W/m 31,4 km/h (5 Bft) 95,74 %
02.02.2016 22:38 5,8 C 5,6 C 3,9 C 94 % 15 lf 1014,7 hPa 0,0 l/m 0 min 0 min 0 W/m 31,4 km/h (5 Bft) 95,65 %
02.02.2016 22:40 5,8 C 5,6 C 3,9 C 94 % 15 lf 1014,7 hPa 0,0 l/m 0 min 0 min 0 W/m 27,2 km/h (4 Bft) 100,00 %
02.02.2016 22:42 5,8 C 5,6 C 3,9 C 94 % 15 lf 1014,7 hPa 0,0 l/m 0 min 0 min 0 W/m 33,5 km/h (5 Bft) 100,00 %
02.02.2016 22:44 5,8 C 5,6 C 3,9 C 94 % 15 lf 1014,7 hPa 0,2 l/m 0 min 0 min 0 W/m 35,6 km/h (5 Bft) 100,00 %
02.02.2016 22:46 5,8 C 5,6 C 3,9 C 94 % 15 lf 1014,7 hPa 0,0 l/m 0 min 0 min 0 W/m 37,7 km/h (5 Bft) 97,87 %
02.02.2016 22:48 5,8 C 5,6 C 3,9 C 94 % 15 lf 1014,7 hPa 0,0 l/m 0 min 0 min 0 W/m 33,5 km/h (5 Bft) 100,00 %
02.02.2016 22:50 5,8 C 5,6 C 3,9 C 94 % 15 lf 1014,7 hPa 0,0 l/m 0 min 0 min 0 W/m 33,5 km/h (5 Bft) 100,00 %
02.02.2016 22:52 5,8 C 5,6 C 3,9 C 94 % 15 lf 1014,7 hPa 0,0 l/m 0 min 0 min 0 W/m 25,1 km/h (4 Bft) 97,87 %
02.02.2016 22:54 5,8 C 5,6 C 3,9 C 94 % 15 lf 1014,7 hPa 0,0 l/m 0 min 0 min 0 W/m 27,2 km/h (4 Bft) 95,74 %
02.02.2016 22:56 5,8 C 5,6 C 3,9 C 93 % 15 lf 1014,7 hPa 0,0 l/m 0 min 2 min 0 W/m 33,5 km/h (5 Bft) 100,00 %
02.02.2016 22:58 5,8 C 5,6 C 3,9 C 93 % 15 lf 1014,7 hPa 0,0 l/m 0 min 2 min 0 W/m 37,7 km/h (5 Bft) 97,87 %
02.02.2016 23:00 5,8 C 5,6 C 3,9 C 93 % 15 lf 1014,7 hPa 0,0 l/m 0 min 2 min 0 W/m 33,5 km/h (5 Bft) 97,87 %
02.02.2016 23:02 5,9 C 5,6 C 3,9 C 93 % 15 lf 1014,7 hPa 0,0 l/m 0 min 2 min 0 W/m 31,4 km/h (5 Bft) 97,83 %
02.02.2016 23:04 5,9 C 5,6 C 3,9 C 93 % 15 lf 1014,7 hPa 0,0 l/m 0 min 2 min 0 W/m 23,0 km/h (4 Bft) 100,00 %
02.02.2016 23:06 5,9 C 5,6 C 3,9 C 93 % 15 lf 1014,7 hPa 0,0 l/m 0 min 2 min 0 W/m 37,7 km/h (5 Bft) 95,74 %
02.02.2016 23:08 5,9 C 5,6 C 3,9 C 93 % 15 lf 1014,8 hPa 0,0 l/m 0 min 2 min 0 W/m 37,7 km/h (5 Bft) 97,87 %
02.02.2016 23:10 5,9 C 5,6 C 3,9 C 93 % 14 lf 1014,8 hPa 0,0 l/m 0 min 0 min 0 W/m 29,3 km/h (5 Bft) 93,62 %
02.02.2016 23:12 5,9 C 5,6 C 3,9 C 93 % 15 lf 1014,8 hPa 0,0 l/m 0 min 2 min 0 W/m 29,3 km/h (5 Bft) 97,83 %
02.02.2016 23:14 5,9 C 5,6 C 3,9 C 93 % 15 lf 1014,7 hPa 0,0 l/m 0 min 0 min 0 W/m 27,2 km/h (4 Bft) 97,87 %
02.02.2016 23:16 5,9 C 5,6 C 3,3 C 93 % 14 lf 1014,7 hPa 0,0 l/m 0 min 0 min 0 W/m 27,2 km/h (4 Bft) 97,87 %
02.02.2016 23:18 5,8 C 5,0 C 3,3 C 93 % 14 lf 1014,7 hPa 0,0 l/m 0 min 0 min 0 W/m 29,3 km/h (5 Bft) 97,87 %
02.02.2016 23:20 5,8 C 5,6 C 3,3 C 92 % 14 lf 1014,8 hPa 0,2 l/m 0 min 2 min 0 W/m 35,6 km/h (5 Bft) 93,62 %
02.02.2016 23:22 5,8 C 5,0 C 3,3 C 92 % 14 lf 1014,8 hPa 0,0 l/m 0 min 2 min 0 W/m 35,6 km/h (5 Bft) 95,74 %
02.02.2016 23:24 5,8 C 5,6 C 3,3 C 92 % 13 lf 1014,8 hPa 0,0 l/m 0 min 2 min 0 W/m 35,6 km/h (5 Bft) 97,83 %
02.02.2016 23:26 5,8 C 5,6 C 3,3 C 92 % 13 lf 1014,8 hPa 0,0 l/m 0 min 2 min 0 W/m 41,8 km/h (6 Bft) 91,49 %
02.02.2016 23:28 5,8 C 5,6 C 3,3 C 92 % 13 lf 1014,9 hPa 0,0 l/m 0 min 2 min 0 W/m 37,7 km/h (5 Bft) 95,74 %
02.02.2016 23:30 5,8 C 5,0 C 3,3 C 91 % 12 lf 1014,8 hPa 0,0 l/m 0 min 2 min 0 W/m 35,6 km/h (5 Bft) 97,87 %
02.02.2016 23:32 5,8 C 5,6 C 3,3 C 91 % 12 lf 1014,8 hPa 0,0 l/m 0 min 0 min 0 W/m 31,4 km/h (5 Bft) 97,87 %
02.02.2016 23:34 5,8 C 5,6 C 3,3 C 91 % 12 lf 1014,8 hPa 0,0 l/m 0 min 2 min 0 W/m 41,8 km/h (6 Bft) 97,87 %
02.02.2016 23:36 5,8 C 5,6 C 3,9 C 91 % 12 lf 1014,8 hPa 0,0 l/m 0 min 2 min 0 W/m 46,0 km/h (6 Bft) 95,74 %
02.02.2016 23:38 5,8 C 5,6 C 3,9 C 91 % 11 lf 1014,9 hPa 0,0 l/m 0 min 2 min 0 W/m 33,5 km/h (5 Bft) 97,83 %
02.02.2016 23:40 5,8 C 5,6 C 3,9 C 91 % 10 lf 1014,8 hPa 0,0 l/m 0 min 0 min 0 W/m 29,3 km/h (5 Bft) 95,74 %
02.02.2016 23:42 5,8 C 5,6 C 3,3 C 91 % 10 lf 1014,8 hPa 0,0 l/m 0 min 0 min 0 W/m 35,6 km/h (5 Bft) 93,62 %
02.02.2016 23:44 5,8 C 5,6 C 3,3 C 91 % 9 lf 1014,8 hPa 0,0 l/m 0 min 0 min 0 W/m 31,4 km/h (5 Bft) 93,62 %
02.02.2016 23:46 5,8 C 5,6 C 3,3 C 91 % 9 lf 1014,8 hPa 0,0 l/m 0 min 0 min 0 W/m 37,7 km/h (5 Bft) 97,87 %
02.02.2016 23:48 5,8 C 5,6 C 3,3 C 91 % 8 lf 1014,9 hPa 0,0 l/m 0 min 0 min 0 W/m 33,5 km/h (5 Bft) 95,65 %
02.02.2016 23:50 5,8 C 5,6 C 3,3 C 91 % 7 lf 1014,9 hPa 0,0 l/m 0 min 0 min 0 W/m 37,7 km/h (5 Bft) 95,74 %
02.02.2016 23:52 5,8 C 5,6 C 3,3 C 90 % 6 lf 1014,9 hPa 0,0 l/m 0 min 0 min 0 W/m 27,2 km/h (4 Bft) 95,74 %
02.02.2016 23:54 5,8 C 5,0 C 3,3 C 90 % 5 lf 1015,0 hPa 0,0 l/m 0 min 2 min 0 W/m 31,4 km/h (5 Bft) 97,87 %
02.02.2016 23:56 5,8 C 5,0 C 3,3 C 90 % 4 lf 1014,9 hPa 0,0 l/m 0 min 2 min 0 W/m 27,2 km/h (4 Bft) 93,62 %
02.02.2016 23:58 5,8 C 5,0 C 3,3 C 90 % 4 lf 1015,0 hPa 0,0 l/m 0 min 0 min 0 W/m 33,5 km/h (5 Bft) 95,74 %
_ Min-Zeit 21:08 20:58 21:00 06:14 04:54 14:54 - - - - 10:46 16:06
Minimum _ 5,0 C 3,9 C 1,7 C 84 % 0 lf 1011,2 hPa - - - - 14,6 km/h (3 Bft) 85,11 %
_ Max-Zeit 01:02 00:54 00:42 11:08 00:00 00:36 15:54 00:00 00:00 11:28 03:08 01:38
Maximum _ 10,8 C 11,1 C 9,4 C 97 % 15 lf 1016,2 hPa 0,4 l/m 0 min 2 min 124 W/m 71,1 km/h
W-SW (8 Bft)
100,00 %
Durchschnitt _ 8,5 C 8,3 C 6,8 C 93 % 11 lf 1013,9 hPa #15,2 l/m #0 min. #13:44 h 43 W/m 33,8 km/h (5 Bft) 95,89 %
© 2016 W. Hausmann